Observation data for Colorado City on 05/25/2019      Previous  Date  Next       Current Mesonet Observations  Soil Data  Daily Summary Page  Observations in Plain Language
KCO2 250500Z 14002KT 22/19 A2995 RMK A01 T02200187  RH  082%=      5-min Rain = 0
KCO2 250501Z 14002KT 22/19 A2995 RMK A01 T02200187  RH  082%=      5-min Rain = 0
KCO2 250502Z 13002KT 22/19 A2995 RMK A01 T02200187  RH  082%=      5-min Rain = 0
KCO2 250503Z 11002KT 22/19 A2995 RMK A01 T02200187  RH  082%=      5-min Rain = 0
KCO2 250504Z 11002KT 22/19 A2995 RMK A01 T02200187  RH  082%=      5-min Rain = 0
KCO2 250505Z 12002KT 22/19 A2995 RMK A01 T02190187  RH  082%=      5-min Rain = 0
KCO2 250506Z 11002KT 22/19 A2995 RMK A01 T02180186  RH  082%=      5-min Rain = 0
KCO2 250507Z 11002KT 22/19 A2995 RMK A01 T02180186  RH  082%=      5-min Rain = 0
KCO2 250508Z 12002KT 22/19 A2995 RMK A01 T02180186  RH  082%=      5-min Rain = 0
KCO2 250509Z 13003KT 22/19 A2995 RMK A01 T02180186  RH  082%=      5-min Rain = 0
KCO2 250510Z 12003KT 22/19 A2995 RMK A01 T02190187  RH  082%=      5-min Rain = 0
KCO2 250511Z 13003KT 22/19 A2995 RMK A01 T02190187  RH  082%=      5-min Rain = 0
KCO2 250512Z 13003KT 22/19 A2996 RMK A01 T02200187  RH  081%=      5-min Rain = 0
KCO2 250513Z 13003KT 22/19 A2996 RMK A01 T02210187  RH  081%=      5-min Rain = 0
KCO2 250514Z 14004KT 22/19 A2996 RMK A01 T02220187  RH  081%=      5-min Rain = 0
KCO2 250515Z 13003KT 22/19 A2996 RMK A01 T02220187  RH  080%=      5-min Rain = 0
KCO2 250516Z 13003KT 22/19 A2996 RMK A01 T02230187  RH  080%=      5-min Rain = 0
KCO2 250517Z 13004KT 22/19 A2996 RMK A01 T02230187  RH  080%=      5-min Rain = 0
KCO2 250518Z 13004KT 22/19 A2996 RMK A01 T02220187  RH  080%=      5-min Rain = 0
KCO2 250519Z 14003KT 22/19 A2996 RMK A01 T02220187  RH  081%=      5-min Rain = 0
KCO2 250520Z 14004KT 22/19 A2996 RMK A01 T02220187  RH  081%=      5-min Rain = 0
KCO2 250521Z 15004KT 22/19 A2996 RMK A01 T02220187  RH  080%=      5-min Rain = 0
KCO2 250522Z 15004KT 22/19 A2996 RMK A01 T02220187  RH  080%=      5-min Rain = 0
KCO2 250523Z 15005KT 22/19 A2996 RMK A01 T02200186  RH  081%=      5-min Rain = 0
KCO2 250524Z 14005KT 22/19 A2996 RMK A01 T02180186  RH  082%=      5-min Rain = 0
KCO2 250525Z 14005KT 22/19 A2996 RMK A01 T02170187  RH  083%=      5-min Rain = 0
KCO2 250526Z 14005KT 22/19 A2996 RMK A01 T02160187  RH  084%=      5-min Rain = 0
KCO2 250527Z 14005KT 22/19 A2996 RMK A01 T02160187  RH  084%=      5-min Rain = 0
KCO2 250528Z 14006KT 22/19 A2996 RMK A01 T02150187  RH  084%=      5-min Rain = 0
KCO2 250529Z 15005KT 22/19 A2996 RMK A01 T02150187  RH  084%=      5-min Rain = 0
KCO2 250530Z 14005KT 21/19 A2996 RMK A01 T02140187  RH  084%=      5-min Rain = 0
KCO2 250531Z 14005KT 21/19 A2996 RMK A01 T02140187  RH  085%=      5-min Rain = 0
KCO2 250532Z 14006KT 21/19 A2996 RMK A01 T02140188  RH  085%=      5-min Rain = 0
KCO2 250533Z 14006KT 21/19 A2996 RMK A01 T02140187  RH  085%=      5-min Rain = 0
KCO2 250534Z 14006KT 21/19 A2995 RMK A01 T02140188  RH  085%=      5-min Rain = 0
KCO2 250535Z 14006KT 21/19 A2995 RMK A01 T02140188  RH  085%=      5-min Rain = 0
KCO2 250536Z 14006KT 21/19 A2995 RMK A01 T02140188  RH  085%=      5-min Rain = 0
KCO2 250537Z 14006KT 21/19 A2995 RMK A01 T02140189  RH  086%=      5-min Rain = 0
KCO2 250538Z 14006KT 21/19 A2995 RMK A01 T02140189  RH  086%=      5-min Rain = 0
KCO2 250539Z 15006KT 22/19 A2996 RMK A01 T02150189  RH  085%=      5-min Rain = 0
KCO2 250540Z 15006KT 22/19 A2996 RMK A01 T02150189  RH  085%=      5-min Rain = 0
KCO2 250541Z 14006KT 22/19 A2996 RMK A01 T02150190  RH  085%=      5-min Rain = 0
KCO2 250542Z 15005KT 22/19 A2996 RMK A01 T02150190  RH  085%=      5-min Rain = 0
KCO2 250543Z 15006KT 22/19 A2995 RMK A01 T02150190  RH  086%=      5-min Rain = 0
KCO2 250544Z 15006KT 22/19 A2995 RMK A01 T02150190  RH  086%=      5-min Rain = 0
KCO2 250545Z 15006KT 22/19 A2995 RMK A01 T02150190  RH  086%=      5-min Rain = 0
KCO2 250546Z 15006KT 22/19 A2995 RMK A01 T02150190  RH  086%=      5-min Rain = 0
KCO2 250547Z 15006KT 22/19 A2996 RMK A01 T02150190  RH  086%=      5-min Rain = 0
KCO2 250548Z 15006KT 22/19 A2996 RMK A01 T02150191  RH  086%=      5-min Rain = 0
KCO2 250549Z 15007KT 21/19 A2996 RMK A01 T02140190  RH  086%=      5-min Rain = 0
KCO2 250550Z 15006KT 22/19 A2996 RMK A01 T02150190  RH  086%=      5-min Rain = 0
KCO2 250551Z 15006KT 22/19 A2996 RMK A01 T02150191  RH  086%=      5-min Rain = 0
KCO2 250552Z 15006KT 22/19 A2996 RMK A01 T02150191  RH  086%=      5-min Rain = 0
KCO2 250553Z 15007KT 22/19 A2995 RMK A01 T02150191  RH  086%=      5-min Rain = 0
KCO2 250554Z 15007KT 22/19 A2995 RMK A01 T02160191  RH  086%=      5-min Rain = 0
KCO2 250555Z 15007KT 22/19 A2995 RMK A01 T02160191  RH  086%=      5-min Rain = 0
KCO2 250556Z 15007KT 22/19 A2996 RMK A01 T02160192  RH  086%=      5-min Rain = 0
KCO2 250557Z 15006KT 22/19 A2995 RMK A01 T02160191  RH  086%=      5-min Rain = 0
KCO2 250558Z 15006KT 22/19 A2995 RMK A01 T02160191  RH  086%=      5-min Rain = 0
KCO2 250559Z 15007KT 22/19 A2995 RMK A01 T02160191  RH  086%=      5-min Rain = 0
KCO2 250600Z 15007KT 22/19 A2995 RMK A01 T02170192  RH  086%=      5-min Rain = 0
KCO2 250601Z 15007KT 22/19 A2995 RMK A01 T02170192  RH  085%=      5-min Rain = 0
KCO2 250602Z 15007KT 22/19 A2995 RMK A01 T02180192  RH  085%=      5-min Rain = 0
KCO2 250603Z 15006KT 22/19 A2995 RMK A01 T02180192  RH  085%=      5-min Rain = 0
KCO2 250604Z 15006KT 22/19 A2995 RMK A01 T02180192  RH  085%=      5-min Rain = 0
KCO2 250605Z 15006KT 22/19 A2995 RMK A01 T02180192  RH  085%=      5-min Rain = 0
KCO2 250606Z 15006KT 22/19 A2995 RMK A01 T02170192  RH  086%=      5-min Rain = 0
KCO2 250607Z 15006KT 22/19 A2995 RMK A01 T02170192  RH  086%=      5-min Rain = 0
KCO2 250608Z 15006KT 22/19 A2995 RMK A01 T02170192  RH  086%=      5-min Rain = 0
KCO2 250609Z 15006KT 22/19 A2995 RMK A01 T02160192  RH  086%=      5-min Rain = 0
KCO2 250610Z 15006KT 22/19 A2995 RMK A01 T02160192  RH  086%=      5-min Rain = 0
KCO2 250611Z 15005KT 22/19 A2995 RMK A01 T02160192  RH  086%=      5-min Rain = 0
KCO2 250612Z 15005KT 22/19 A2995 RMK A01 T02160192  RH  086%=      5-min Rain = 0
KCO2 250613Z 14005KT 22/19 A2995 RMK A01 T02160192  RH  087%=      5-min Rain = 0
KCO2 250614Z 14005KT 22/19 A2995 RMK A01 T02150192  RH  087%=      5-min Rain = 0
KCO2 250615Z 14005KT 22/19 A2995 RMK A01 T02150192  RH  087%=      5-min Rain = 0
KCO2 250616Z 14005KT 21/19 A2995 RMK A01 T02140192  RH  087%=      5-min Rain = 0
KCO2 250617Z 14005KT 21/19 A2995 RMK A01 T02140192  RH  087%=      5-min Rain = 0
KCO2 250618Z 13005KT 21/19 A2995 RMK A01 T02140191  RH  087%=      5-min Rain = 0
KCO2 250619Z 14006KT 21/19 A2995 RMK A01 T02140192  RH  087%=      5-min Rain = 0
KCO2 250620Z 13007KT 21/19 A2995 RMK A01 T02130192  RH  087%=      5-min Rain = 0
KCO2 250621Z 13006KT 21/19 A2995 RMK A01 T02130192  RH  087%=      5-min Rain = 0
KCO2 250622Z 14006KT 21/19 A2995 RMK A01 T02140192  RH  087%=      5-min Rain = 0
KCO2 250623Z 13006KT 21/19 A2995 RMK A01 T02140192  RH  087%=      5-min Rain = 0
KCO2 250624Z 14006KT 22/19 A2995 RMK A01 T02150192  RH  087%=      5-min Rain = 0
KCO2 250625Z 13006KT 22/19 A2995 RMK A01 T02150192  RH  087%=      5-min Rain = 0
KCO2 250626Z 13006KT 22/19 A2995 RMK A01 T02160192  RH  087%=      5-min Rain = 0
KCO2 250627Z 13006KT 22/19 A2995 RMK A01 T02150192  RH  087%=      5-min Rain = 0
KCO2 250628Z 13005KT 22/19 A2995 RMK A01 T02160192  RH  087%=      5-min Rain = 0
KCO2 250629Z 12005KT 22/19 A2995 RMK A01 T02150192  RH  086%=      5-min Rain = 0
KCO2 250630Z 13005KT 22/19 A2995 RMK A01 T02150192  RH  087%=      5-min Rain = 0
KCO2 250631Z 12005KT 22/19 A2995 RMK A01 T02150193  RH  087%=      5-min Rain = 0
KCO2 250632Z 13006KT 22/19 A2995 RMK A01 T02150192  RH  087%=      5-min Rain = 0
KCO2 250633Z 12006KT 22/19 A2995 RMK A01 T02150192  RH  087%=      5-min Rain = 0
KCO2 250634Z 12006KT 22/19 A2995 RMK A01 T02150193  RH  087%=      5-min Rain = 0
KCO2 250635Z 12006KT 21/19 A2995 RMK A01 T02140192  RH  087%=      5-min Rain = 0
KCO2 250636Z 12006KT 21/19 A2995 RMK A01 T02130192  RH  088%=      5-min Rain = 0
KCO2 250637Z 12006KT 21/19 A2995 RMK A01 T02120192  RH  088%=      5-min Rain = 0
KCO2 250638Z 12006KT 21/19 A2995 RMK A01 T02120192  RH  088%=      5-min Rain = 0
KCO2 250639Z 12006KT 21/19 A2995 RMK A01 T02120192  RH  088%=      5-min Rain = 0
KCO2 250640Z 12006KT 21/19 A2995 RMK A01 T02120192  RH  088%=      5-min Rain = 0
KCO2 250641Z 12006KT 21/19 A2995 RMK A01 T02110192  RH  089%=      5-min Rain = 0
KCO2 250642Z 12006KT 21/19 A2995 RMK A01 T02110192  RH  089%=      5-min Rain = 0
KCO2 250643Z 11006KT 21/19 A2995 RMK A01 T02110192  RH  089%=      5-min Rain = 0
KCO2 250644Z 11006KT 21/19 A2995 RMK A01 T02110192  RH  089%=      5-min Rain = 0
KCO2 250645Z 11006KT 21/19 A2995 RMK A01 T02110192  RH  089%=      5-min Rain = 0
KCO2 250646Z 11006KT 21/19 A2995 RMK A01 T02110192  RH  089%=      5-min Rain = 0
KCO2 250647Z 11006KT 21/19 A2994 RMK A01 T02110192  RH  089%=      5-min Rain = 0
KCO2 250648Z 11006KT 21/19 A2994 RMK A01 T02110193  RH  089%=      5-min Rain = 0
KCO2 250649Z 11006KT 21/19 A2994 RMK A01 T02120193  RH  089%=      5-min Rain = 0
KCO2 250650Z 10005KT 21/19 A2994 RMK A01 T02120193  RH  089%=      5-min Rain = 0
KCO2 250651Z 09005KT 21/19 A2994 RMK A01 T02130194  RH  089%=      5-min Rain = 0
KCO2 250652Z 09005KT 21/19 A2994 RMK A01 T02140194  RH  088%=      5-min Rain = 0
KCO2 250653Z 09005KT 22/19 A2994 RMK A01 T02150194  RH  088%=      5-min Rain = 0
KCO2 250654Z 09005KT 22/19 A2994 RMK A01 T02150194  RH  088%=      5-min Rain = 0
KCO2 250655Z 09005KT 22/19 A2995 RMK A01 T02160194  RH  087%=      5-min Rain = 0
KCO2 250656Z 09005KT 22/19 A2995 RMK A01 T02170194  RH  087%=      5-min Rain = 0
KCO2 250657Z 09004KT 22/19 A2995 RMK A01 T02170194  RH  087%=      5-min Rain = 0
KCO2 250658Z 10005KT 22/19 A2995 RMK A01 T02180194  RH  086%=      5-min Rain = 0
KCO2 250659Z 09005KT 22/19 A2995 RMK A01 T02190194  RH  086%=      5-min Rain = 0
KCO2 250700Z 10005KT 22/19 A2995 RMK A01 T02190194  RH  086%=      5-min Rain = 0
KCO2 250701Z 10005KT 22/19 A2995 RMK A01 T02200194  RH  085%=      5-min Rain = 0
KCO2 250702Z 10005KT 22/20 A2995 RMK A01 T02210195  RH  085%=      5-min Rain = 0
KCO2 250703Z 10005KT 22/19 A2995 RMK A01 T02210194  RH  085%=      5-min Rain = 0
KCO2 250704Z 10006KT 22/20 A2995 RMK A01 T02210195  RH  085%=      5-min Rain = 0
KCO2 250705Z 10005KT 22/19 A2995 RMK A01 T02210194  RH  084%=      5-min Rain = 0
KCO2 250706Z 10007KT 22/19 A2995 RMK A01 T02220194  RH  084%=      5-min Rain = 0
KCO2 250707Z 10006KT 22/19 A2995 RMK A01 T02220194  RH  084%=      5-min Rain = 0
KCO2 250708Z 10006KT 22/20 A2995 RMK A01 T02220195  RH  085%=      5-min Rain = 0
KCO2 250709Z 11006KT 22/19 A2995 RMK A01 T02220194  RH  085%=      5-min Rain = 0
KCO2 250710Z 11007KT 22/19 A2995 RMK A01 T02220194  RH  084%=      5-min Rain = 0
KCO2 250711Z 11006KT 22/19 A2995 RMK A01 T02220194  RH  084%=      5-min Rain = 0
KCO2 250712Z 11006KT 22/19 A2995 RMK A01 T02220194  RH  084%=      5-min Rain = 0
KCO2 250713Z 11006KT 22/19 A2995 RMK A01 T02220194  RH  084%=      5-min Rain = 0
KCO2 250714Z 11007KT 22/19 A2995 RMK A01 T02220194  RH  084%=      5-min Rain = 0
KCO2 250715Z 11007KT 22/19 A2995 RMK A01 T02230194  RH  084%=      5-min Rain = 0
KCO2 250716Z 11008KT 22/19 A2995 RMK A01 T02230194  RH  084%=      5-min Rain = 0
KCO2 250717Z 11006KT 22/19 A2995 RMK A01 T02230194  RH  083%=      5-min Rain = 0
KCO2 250718Z 11006KT 22/19 A2995 RMK A01 T02240194  RH  083%=      5-min Rain = 0
KCO2 250719Z 11007KT 22/19 A2995 RMK A01 T02240194  RH  083%=      5-min Rain = 0
KCO2 250720Z 11007KT 22/19 A2995 RMK A01 T02240194  RH  083%=      5-min Rain = 0
KCO2 250721Z 11006KT 22/19 A2995 RMK A01 T02240194  RH  083%=      5-min Rain = 0
KCO2 250722Z 12007KT 22/19 A2995 RMK A01 T02240194  RH  083%=      5-min Rain = 0
KCO2 250723Z 11007KT 22/19 A2995 RMK A01 T02240194  RH  083%=      5-min Rain = 0
KCO2 250724Z 12006KT 22/19 A2995 RMK A01 T02240194  RH  083%=      5-min Rain = 0
KCO2 250725Z 11007KT 22/19 A2995 RMK A01 T02240194  RH  083%=      5-min Rain = 0
KCO2 250726Z 11006KT 22/19 A2994 RMK A01 T02240193  RH  083%=      5-min Rain = 0
KCO2 250727Z 12007KT 23/19 A2994 RMK A01 T02250194  RH  083%=      5-min Rain = 0
KCO2 250728Z 11007KT 23/19 A2994 RMK A01 T02250194  RH  083%=      5-min Rain = 0
KCO2 250729Z 11007KT 23/19 A2994 RMK A01 T02250193  RH  083%=      5-min Rain = 0
KCO2 250730Z 11007KT 23/19 A2994 RMK A01 T02250193  RH  082%=      5-min Rain = 0
KCO2 250731Z 11007KT 23/19 A2994 RMK A01 T02250194  RH  083%=      5-min Rain = 0
KCO2 250732Z 10007KT 22/19 A2994 RMK A01 T02240194  RH  083%=      5-min Rain = 0
KCO2 250733Z 10007KT 23/19 A2994 RMK A01 T02250194  RH  083%=      5-min Rain = 0
KCO2 250734Z 10007KT 22/19 A2994 RMK A01 T02240194  RH  083%=      5-min Rain = 0
KCO2 250735Z 10008KT 22/19 A2994 RMK A01 T02240194  RH  083%=      5-min Rain = 0
KCO2 250736Z 10008KT 22/19 A2994 RMK A01 T02240194  RH  083%=      5-min Rain = 0
KCO2 250737Z 11007KT 22/19 A2994 RMK A01 T02240194  RH  083%=      5-min Rain = 0
KCO2 250738Z 10007KT 22/19 A2994 RMK A01 T02240194  RH  083%=      5-min Rain = 0
KCO2 250739Z 11008KT 22/19 A2994 RMK A01 T02230194  RH  083%=      5-min Rain = 0
KCO2 250740Z 10008KT 22/19 A2994 RMK A01 T02230194  RH  083%=      5-min Rain = 0
KCO2 250741Z 10008KT 22/19 A2994 RMK A01 T02230194  RH  083%=      5-min Rain = 0
KCO2 250742Z 10008KT 22/19 A2994 RMK A01 T02230193  RH  083%=      5-min Rain = 0
KCO2 250743Z 10007KT 22/19 A2994 RMK A01 T02230193  RH  083%=      5-min Rain = 0
KCO2 250744Z 10008KT 22/19 A2994 RMK A01 T02230193  RH  083%=      5-min Rain = 0
KCO2 250745Z 11007KT 22/19 A2994 RMK A01 T02230193  RH  083%=      5-min Rain = 0
KCO2 250746Z 11007KT 22/19 A2994 RMK A01 T02230193  RH  083%=      5-min Rain = 0
KCO2 250747Z 11008KT 22/19 A2994 RMK A01 T02230194  RH  083%=      5-min Rain = 0
KCO2 250748Z 11007KT 22/19 A2994 RMK A01 T02230194  RH  084%=      5-min Rain = 0
KCO2 250749Z 10008KT 22/19 A2994 RMK A01 T02230194  RH  084%=      5-min Rain = 0
KCO2 250750Z 10007KT 22/19 A2993 RMK A01 T02220193  RH  084%=      5-min Rain = 0
KCO2 250751Z 10009KT 22/19 A2993 RMK A01 T02220193  RH  084%=      5-min Rain = 0
KCO2 250752Z 10008KT 22/19 A2993 RMK A01 T02220193  RH  083%=      5-min Rain = 0
KCO2 250753Z 10008KT 22/19 A2993 RMK A01 T02220193  RH  083%=      5-min Rain = 0
KCO2 250754Z 10009KT 22/19 A2993 RMK A01 T02230193  RH  083%=      5-min Rain = 0
KCO2 250755Z 10009KT 22/19 A2993 RMK A01 T02230193  RH  083%=      5-min Rain = 0
KCO2 250756Z 10008KT 22/19 A2993 RMK A01 T02230192  RH  083%=      5-min Rain = 0
KCO2 250757Z 10008KT 22/19 A2993 RMK A01 T02230193  RH  083%=      5-min Rain = 0
KCO2 250758Z 10008KT 22/19 A2993 RMK A01 T02230192  RH  083%=      5-min Rain = 0
KCO2 250759Z 10008KT 22/19 A2993 RMK A01 T02230193  RH  083%=      5-min Rain = 0
KCO2 250800Z 10008KT 22/19 A2993 RMK A01 T02230193  RH  083%=      5-min Rain = 0
KCO2 250801Z 10009KT 22/19 A2993 RMK A01 T02230193  RH  083%=      5-min Rain = 0
KCO2 250802Z 10008KT 22/19 A2993 RMK A01 T02230193  RH  083%=      5-min Rain = 0
KCO2 250803Z 10007KT 22/19 A2993 RMK A01 T02230193  RH  083%=      5-min Rain = 0
KCO2 250804Z 10008KT 22/19 A2993 RMK A01 T02230193  RH  083%=      5-min Rain = 0
KCO2 250805Z 10007KT 22/19 A2993 RMK A01 T02230193  RH  083%=      5-min Rain = 0
KCO2 250806Z 10007KT 22/19 A2993 RMK A01 T02230193  RH  083%=      5-min Rain = 0
KCO2 250807Z 10008KT 22/19 A2993 RMK A01 T02230193  RH  083%=      5-min Rain = 0
KCO2 250808Z 10007KT 22/19 A2993 RMK A01 T02230193  RH  083%=      5-min Rain = 0
KCO2 250809Z 10007KT 22/19 A2993 RMK A01 T02230193  RH  083%=      5-min Rain = 0
KCO2 250810Z 10007KT 22/19 A2993 RMK A01 T02230192  RH  083%=      5-min Rain = 0
KCO2 250811Z 10007KT 22/19 A2993 RMK A01 T02230193  RH  083%=      5-min Rain = 0
KCO2 250812Z 10007KT 22/19 A2993 RMK A01 T02230193  RH  083%=      5-min Rain = 0
KCO2 250813Z 10007KT 22/19 A2993 RMK A01 T02230193  RH  083%=      5-min Rain = 0
KCO2 250814Z 11008KT 22/19 A2993 RMK A01 T02230193  RH  083%=      5-min Rain = 0
KCO2 250815Z 11007KT 22/19 A2993 RMK A01 T02230192  RH  083%=      5-min Rain = 0
KCO2 250816Z 11008KT 22/19 A2993 RMK A01 T02230192  RH  083%=      5-min Rain = 0
KCO2 250817Z 10008KT 22/19 A2993 RMK A01 T02230192  RH  083%=      5-min Rain = 0
KCO2 250818Z 10008KT 22/19 A2993 RMK A01 T02230193  RH  083%=      5-min Rain = 0
KCO2 250819Z 10008KT 22/19 A2993 RMK A01 T02230192  RH  083%=      5-min Rain = 0
KCO2 250820Z 11007KT 22/19 A2993 RMK A01 T02240193  RH  083%=      5-min Rain = 0
KCO2 250821Z 11008KT 22/19 A2993 RMK A01 T02240193  RH  083%=      5-min Rain = 0
KCO2 250822Z 10007KT 22/19 A2993 RMK A01 T02240193  RH  083%=      5-min Rain = 0
KCO2 250823Z 10008KT 22/19 A2993 RMK A01 T02240193  RH  083%=      5-min Rain = 0
KCO2 250824Z 10007KT 22/19 A2993 RMK A01 T02240193  RH  083%=      5-min Rain = 0
KCO2 250825Z 10007KT 22/19 A2993 RMK A01 T02230193  RH  083%=      5-min Rain = 0
KCO2 250826Z 11009KT 22/19 A2993 RMK A01 T02230193  RH  083%=      5-min Rain = 0
KCO2 250827Z 11008KT 22/19 A2993 RMK A01 T02230192  RH  083%=      5-min Rain = 0
KCO2 250828Z 11009KT 22/19 A2993 RMK A01 T02230192  RH  083%=      5-min Rain = 0
KCO2 250829Z 10008KT 22/19 A2993 RMK A01 T02240192  RH  082%=      5-min Rain = 0
KCO2 250830Z 11009KT 22/19 A2993 RMK A01 T02240192  RH  082%=      5-min Rain = 0
KCO2 250831Z 11008KT 22/19 A2993 RMK A01 T02240192  RH  082%=      5-min Rain = 0
KCO2 250832Z 11008KT 22/19 A2993 RMK A01 T02240192  RH  082%=      5-min Rain = 0
KCO2 250833Z 12007KT 22/19 A2993 RMK A01 T02240192  RH  082%=      5-min Rain = 0
KCO2 250834Z 11009KT 22/19 A2993 RMK A01 T02240193  RH  082%=      5-min Rain = 0
KCO2 250835Z 11008KT 23/19 A2993 RMK A01 T02250192  RH  082%=      5-min Rain = 0
KCO2 250836Z 11008KT 23/19 A2993 RMK A01 T02250192  RH  082%=      5-min Rain = 0
KCO2 250837Z 11007KT 23/19 A2993 RMK A01 T02250192  RH  082%=      5-min Rain = 0
KCO2 250838Z 11007KT 23/19 A2993 RMK A01 T02250193  RH  082%=      5-min Rain = 0
KCO2 250839Z 11008KT 23/19 A2993 RMK A01 T02250193  RH  082%=      5-min Rain = 0
KCO2 250840Z 11008KT 23/19 A2993 RMK A01 T02250192  RH  082%=      5-min Rain = 0
KCO2 250841Z 11007KT 23/19 A2993 RMK A01 T02250193  RH  082%=      5-min Rain = 0
KCO2 250842Z 10008KT 23/19 A2993 RMK A01 T02260193  RH  082%=      5-min Rain = 0
KCO2 250843Z 11008KT 23/19 A2993 RMK A01 T02260193  RH  082%=      5-min Rain = 0
KCO2 250844Z 10008KT 23/19 A2993 RMK A01 T02250193  RH  082%=      5-min Rain = 0
KCO2 250845Z 10007KT 23/19 A2993 RMK A01 T02260193  RH  082%=      5-min Rain = 0
KCO2 250846Z 11008KT 23/19 A2993 RMK A01 T02260193  RH  082%=      5-min Rain = 0
KCO2 250847Z 11007KT 23/19 A2993 RMK A01 T02260193  RH  082%=      5-min Rain = 0
KCO2 250848Z 11007KT 23/19 A2994 RMK A01 T02260193  RH  082%=      5-min Rain = 0
KCO2 250849Z 11007KT 23/19 A2994 RMK A01 T02260193  RH  082%=      5-min Rain = 0
KCO2 250850Z 11008KT 23/19 A2994 RMK A01 T02260193  RH  082%=      5-min Rain = 0
KCO2 250851Z 11007KT 23/19 A2994 RMK A01 T02250193  RH  082%=      5-min Rain = 0
KCO2 250852Z 11007KT 23/19 A2994 RMK A01 T02260193  RH  082%=      5-min Rain = 0
KCO2 250853Z 11007KT 23/19 A2994 RMK A01 T02260193  RH  082%=      5-min Rain = 0
KCO2 250854Z 11008KT 23/19 A2994 RMK A01 T02260193  RH  082%=      5-min Rain = 0
KCO2 250855Z 11007KT 23/19 A2994 RMK A01 T02260193  RH  082%=      5-min Rain = 0
KCO2 250856Z 10006KT 23/19 A2994 RMK A01 T02260193  RH  082%=      5-min Rain = 0
KCO2 250857Z 11007KT 23/19 A2994 RMK A01 T02260193  RH  082%=      5-min Rain = 0
KCO2 250858Z 11006KT 23/19 A2994 RMK A01 T02260193  RH  082%=      5-min Rain = 0
KCO2 250859Z 11006KT 23/19 A2994 RMK A01 T02260194  RH  082%=      5-min Rain = 0
KCO2 250900Z 10005KT 23/19 A2994 RMK A01 T02260193  RH  082%=      5-min Rain = 0
KCO2 250901Z 10005KT 23/19 A2994 RMK A01 T02260194  RH  082%=      5-min Rain = 0
KCO2 250902Z 10006KT 23/19 A2994 RMK A01 T02260194  RH  082%=      5-min Rain = 0
KCO2 250903Z 10007KT 23/19 A2994 RMK A01 T02250194  RH  082%=      5-min Rain = 0
KCO2 250904Z 10007KT 23/19 A2994 RMK A01 T02260194  RH  082%=      5-min Rain = 0
KCO2 250905Z 09006KT 23/19 A2994 RMK A01 T02250193  RH  082%=      5-min Rain = 0
KCO2 250906Z 09005KT 23/19 A2994 RMK A01 T02260194  RH  082%=      5-min Rain = 0
KCO2 250907Z 08005KT 23/19 A2994 RMK A01 T02250194  RH  083%=      5-min Rain = 0
KCO2 250908Z 08006KT 23/19 A2994 RMK A01 T02250194  RH  083%=      5-min Rain = 0
KCO2 250909Z 08005KT 23/19 A2994 RMK A01 T02250194  RH  083%=      5-min Rain = 0
KCO2 250910Z 08005KT 22/19 A2994 RMK A01 T02240194  RH  083%=      5-min Rain = 0
KCO2 250911Z 09007KT 22/19 A2994 RMK A01 T02230194  RH  084%=      5-min Rain = 0
KCO2 250912Z 09007KT 22/19 A2994 RMK A01 T02230194  RH  084%=      5-min Rain = 0
KCO2 250913Z 09007KT 22/19 A2994 RMK A01 T02230194  RH  084%=      5-min Rain = 0
KCO2 250914Z 09007KT 22/19 A2994 RMK A01 T02230194  RH  084%=      5-min Rain = 0
KCO2 250915Z 09006KT 22/19 A2994 RMK A01 T02220194  RH  084%=      5-min Rain = 0
KCO2 250916Z 09007KT 22/19 A2994 RMK A01 T02220194  RH  084%=      5-min Rain = 0
KCO2 250917Z 09007KT 22/19 A2994 RMK A01 T02220194  RH  084%=      5-min Rain = 0
KCO2 250918Z 09007KT 22/19 A2994 RMK A01 T02220194  RH  084%=      5-min Rain = 0
KCO2 250919Z 10006KT 22/19 A2994 RMK A01 T02220194  RH  084%=      5-min Rain = 0
KCO2 250920Z 10007KT 22/19 A2994 RMK A01 T02220193  RH  084%=      5-min Rain = 0
KCO2 250921Z 10008KT 22/19 A2994 RMK A01 T02220194  RH  084%=      5-min Rain = 0
KCO2 250922Z 10007KT 22/19 A2994 RMK A01 T02220194  RH  084%=      5-min Rain = 0
KCO2 250923Z 10008KT 22/19 A2994 RMK A01 T02220193  RH  084%=      5-min Rain = 0
KCO2 250924Z 10008KT 22/19 A2994 RMK A01 T02220193  RH  084%=      5-min Rain = 0
KCO2 250925Z 10007KT 22/19 A2994 RMK A01 T02220193  RH  083%=      5-min Rain = 0
KCO2 250926Z 09007KT 22/19 A2994 RMK A01 T02220193  RH  083%=      5-min Rain = 0
KCO2 250927Z 10009KT 22/19 A2994 RMK A01 T02220193  RH  083%=      5-min Rain = 0
KCO2 250928Z 10008KT 22/19 A2994 RMK A01 T02220193  RH  083%=      5-min Rain = 0
KCO2 250929Z 10008KT 22/19 A2994 RMK A01 T02220193  RH  084%=      5-min Rain = 0
KCO2 250930Z 10009KT 22/19 A2994 RMK A01 T02230193  RH  083%=      5-min Rain = 0
KCO2 250931Z 10008KT 22/19 A2994 RMK A01 T02220193  RH  083%=      5-min Rain = 0
KCO2 250932Z 10007KT 22/19 A2994 RMK A01 T02220193  RH  083%=      5-min Rain = 0
KCO2 250933Z 10008KT 22/19 A2995 RMK A01 T02220193  RH  084%=      5-min Rain = 0
KCO2 250934Z 11008KT 22/19 A2995 RMK A01 T02220193  RH  084%=      5-min Rain = 0
KCO2 250935Z 11010KT 22/19 A2995 RMK A01 T02220193  RH  083%=      5-min Rain = 0
KCO2 250936Z 10007KT 22/19 A2995 RMK A01 T02220192  RH  083%=      5-min Rain = 0
KCO2 250937Z 10009KT 22/19 A2995 RMK A01 T02220192  RH  083%=      5-min Rain = 0
KCO2 250938Z 11008KT 22/19 A2995 RMK A01 T02220192  RH  083%=      5-min Rain = 0
KCO2 250939Z 11008KT 22/19 A2995 RMK A01 T02220193  RH  083%=      5-min Rain = 0
KCO2 250940Z 11010KT 22/19 A2995 RMK A01 T02220192  RH  083%=      5-min Rain = 0
KCO2 250941Z 11009KT 22/19 A2995 RMK A01 T02210192  RH  083%=      5-min Rain = 0
KCO2 250942Z 11008KT 22/19 A2995 RMK A01 T02210192  RH  083%=      5-min Rain = 0
KCO2 250943Z 11008KT 22/19 A2995 RMK A01 T02210192  RH  083%=      5-min Rain = 0
KCO2 250944Z 11008KT 22/19 A2995 RMK A01 T02210192  RH  084%=      5-min Rain = 0
KCO2 250945Z 11007KT 22/19 A2995 RMK A01 T02210192  RH  084%=      5-min Rain = 0
KCO2 250946Z 11007KT 22/19 A2995 RMK A01 T02210193  RH  084%=      5-min Rain = 0
KCO2 250947Z 11007KT 22/19 A2995 RMK A01 T02210193  RH  084%=      5-min Rain = 0
KCO2 250948Z 11009KT 22/19 A2995 RMK A01 T02210193  RH  084%=      5-min Rain = 0
KCO2 250949Z 11008KT 22/19 A2995 RMK A01 T02210193  RH  084%=      5-min Rain = 0
KCO2 250950Z 11011KT 22/19 A2995 RMK A01 T02210193  RH  084%=      5-min Rain = 0
KCO2 250951Z 11009KT 22/19 A2995 RMK A01 T02210193  RH  084%=      5-min Rain = 0
KCO2 250952Z 11008KT 22/19 A2995 RMK A01 T02210193  RH  084%=      5-min Rain = 0
KCO2 250953Z 11008KT 22/19 A2995 RMK A01 T02210193  RH  085%=      5-min Rain = 0
KCO2 250954Z 11008KT 22/19 A2995 RMK A01 T02200193  RH  085%=      5-min Rain = 0
KCO2 250955Z 11009KT 22/19 A2995 RMK A01 T02200193  RH  085%=      5-min Rain = 0
KCO2 250956Z 11009KT 22/19 A2995 RMK A01 T02200193  RH  084%=      5-min Rain = 0
KCO2 250957Z 11007KT 22/19 A2995 RMK A01 T02200193  RH  085%=      5-min Rain = 0
KCO2 250958Z 11008KT 22/19 A2995 RMK A01 T02200193  RH  085%=      5-min Rain = 0
KCO2 250959Z 12009KT 22/19 A2995 RMK A01 T02200193  RH  085%=      5-min Rain = 0
KCO2 251000Z 12009KT 22/19 A2995 RMK A01 T02200193  RH  085%=      5-min Rain = 0
KCO2 251001Z 11008KT 22/19 A2995 RMK A01 T02200194  RH  085%=      5-min Rain = 0
KCO2 251002Z 12010KT 22/19 A2995 RMK A01 T02190194  RH  086%=      5-min Rain = 0
KCO2 251003Z 12009KT 22/19 A2995 RMK A01 T02190194  RH  086%=      5-min Rain = 0
KCO2 251004Z 12008KT 22/20 A2995 RMK A01 T02180195  RH  086%=      5-min Rain = 0
KCO2 251005Z 11008KT 22/20 A2995 RMK A01 T02180195  RH  087%=      5-min Rain = 0
KCO2 251006Z 11009KT 22/20 A2995 RMK A01 T02170195  RH  087%=      5-min Rain = 0
KCO2 251007Z 12009KT 22/20 A2995 RMK A01 T02170196  RH  088%=      5-min Rain = 0
KCO2 251008Z 11010KT 22/20 A2995 RMK A01 T02160196  RH  088%=      5-min Rain = 0
KCO2 251009Z 11010KT 22/20 A2995 RMK A01 T02160195  RH  088%=      5-min Rain = 0
KCO2 251010Z 11009KT 22/20 A2995 RMK A01 T02150195  RH  088%=      5-min Rain = 0
KCO2 251011Z 11008KT 22/20 A2995 RMK A01 T02160196  RH  089%=      5-min Rain = 0
KCO2 251012Z 11009KT 22/20 A2995 RMK A01 T02150196  RH  089%=      5-min Rain = 0
KCO2 251013Z 11010KT 22/20 A2995 RMK A01 T02150196  RH  089%=      5-min Rain = 0
KCO2 251014Z 11009KT 21/20 A2995 RMK A01 T02140195  RH  089%=      5-min Rain = 0
KCO2 251015Z 11010KT 21/20 A2995 RMK A01 T02140196  RH  089%=      5-min Rain = 0
KCO2 251016Z 11010KT 21/20 A2995 RMK A01 T02140196  RH  089%=      5-min Rain = 0
KCO2 251017Z 11011KT 21/20 A2995 RMK A01 T02140196  RH  089%=      5-min Rain = 0
KCO2 251018Z 11011KT 21/20 A2995 RMK A01 T02140195  RH  089%=      5-min Rain = 0
KCO2 251019Z 11009KT 21/20 A2995 RMK A01 T02140196  RH  089%=      5-min Rain = 0
KCO2 251020Z 11011KT 21/20 A2995 RMK A01 T02140196  RH  089%=      5-min Rain = 0
KCO2 251021Z 11011KT 21/20 A2995 RMK A01 T02140196  RH  090%=      5-min Rain = 0
KCO2 251022Z 11011KT 21/20 A2995 RMK A01 T02140196  RH  090%=      5-min Rain = 0
KCO2 251023Z 11011KT 21/20 A2995 RMK A01 T02140196  RH  090%=      5-min Rain = 0
KCO2 251024Z 11010KT 21/20 A2995 RMK A01 T02130196  RH  090%=      5-min Rain = 0
KCO2 251025Z 11010KT 21/20 A2995 RMK A01 T02130196  RH  090%=      5-min Rain = 0
KCO2 251026Z 11010KT 21/20 A2996 RMK A01 T02130196  RH  090%=      5-min Rain = 0
KCO2 251027Z 11010KT 21/20 A2996 RMK A01 T02130197  RH  090%=      5-min Rain = 0
KCO2 251028Z 11009KT 21/20 A2996 RMK A01 T02120196  RH  091%=      5-min Rain = 0
KCO2 251029Z 11010KT 21/20 A2996 RMK A01 T02120197  RH  091%=      5-min Rain = 0
KCO2 251030Z 11008KT 21/20 A2996 RMK A01 T02120196  RH  091%=      5-min Rain = 0
KCO2 251031Z 11008KT 21/20 A2996 RMK A01 T02120197  RH  091%=      5-min Rain = 0
KCO2 251032Z 11010KT 21/20 A2996 RMK A01 T02110197  RH  091%=      5-min Rain = 0
KCO2 251033Z 11010KT 21/20 A2996 RMK A01 T02120197  RH  091%=      5-min Rain = 0
KCO2 251034Z 11009KT 21/20 A2996 RMK A01 T02110196  RH  091%=      5-min Rain = 0
KCO2 251035Z 11012KT 21/20 A2996 RMK A01 T02110196  RH  091%=      5-min Rain = 0
KCO2 251036Z 11010KT 21/20 A2996 RMK A01 T02120196  RH  091%=      5-min Rain = 0
KCO2 251037Z 11010KT 21/20 A2996 RMK A01 T02120196  RH  091%=      5-min Rain = 0
KCO2 251038Z 12009KT 21/20 A2996 RMK A01 T02120196  RH  091%=      5-min Rain = 0
KCO2 251039Z 11009KT 21/20 A2996 RMK A01 T02120196  RH  091%=      5-min Rain = 0
KCO2 251040Z 11010KT 21/20 A2996 RMK A01 T02120196  RH  091%=      5-min Rain = 0
KCO2 251041Z 12008KT 21/20 A2996 RMK A01 T02120196  RH  091%=      5-min Rain = 0
KCO2 251042Z 12008KT 21/20 A2996 RMK A01 T02120197  RH  091%=      5-min Rain = 0
KCO2 251043Z 11009KT 21/20 A2996 RMK A01 T02110197  RH  091%=      5-min Rain = 0
KCO2 251044Z 12009KT 21/20 A2996 RMK A01 T02110197  RH  091%=      5-min Rain = 0
KCO2 251045Z 12007KT 21/20 A2996 RMK A01 T02110197  RH  091%=      5-min Rain = 0
KCO2 251046Z 12007KT 21/20 A2996 RMK A01 T02110197  RH  091%=      5-min Rain = 0
KCO2 251047Z 12009KT 21/20 A2996 RMK A01 T02110197  RH  092%=      5-min Rain = 0
KCO2 251048Z 12008KT 21/20 A2996 RMK A01 T02110197  RH  092%=      5-min Rain = 0
KCO2 251049Z 12008KT 21/20 A2996 RMK A01 T02110197  RH  092%=      5-min Rain = 0
KCO2 251050Z 11010KT 21/20 A2996 RMK A01 T02100197  RH  092%=      5-min Rain = 0
KCO2 251051Z 11009KT 21/20 A2996 RMK A01 T02100197  RH  092%=      5-min Rain = 0
KCO2 251052Z 12007KT 21/20 A2996 RMK A01 T02100197  RH  092%=      5-min Rain = 0
KCO2 251053Z 12008KT 21/20 A2996 RMK A01 T02100197  RH  092%=      5-min Rain = 0
KCO2 251054Z 12008KT 21/20 A2997 RMK A01 T02110198  RH  092%=      5-min Rain = 0
KCO2 251055Z 11009KT 21/20 A2997 RMK A01 T02100197  RH  092%=      5-min Rain = 0
KCO2 251056Z 12008KT 21/20 A2997 RMK A01 T02100197  RH  092%=      5-min Rain = 0
KCO2 251057Z 11007KT 21/20 A2997 RMK A01 T02100198  RH  093%=      5-min Rain = 0
KCO2 251058Z 11007KT 21/20 A2997 RMK A01 T02100198  RH  093%=      5-min Rain = 0
KCO2 251059Z 11007KT 21/20 A2997 RMK A01 T02100198  RH  093%=      5-min Rain = 0
KCO2 251100Z 12008KT 21/20 A2997 RMK A01 T02090198  RH  093%=      5-min Rain = 0
KCO2 251101Z 12007KT 21/20 A2997 RMK A01 T02100198  RH  093%=      5-min Rain = 0
KCO2 251102Z 11009KT 21/20 A2997 RMK A01 T02090198  RH  093%=      5-min Rain = 0
KCO2 251103Z 12009KT 21/20 A2997 RMK A01 T02100198  RH  093%=      5-min Rain = 0
KCO2 251104Z 11009KT 21/20 A2997 RMK A01 T02100198  RH  093%=      5-min Rain = 0
KCO2 251105Z 12010KT 21/20 A2997 RMK A01 T02100198  RH  093%=      5-min Rain = 0
KCO2 251106Z 12010KT 21/20 A2997 RMK A01 T02100197  RH  093%=      5-min Rain = 0
KCO2 251107Z 12008KT 21/20 A2997 RMK A01 T02090197  RH  093%=      5-min Rain = 0
KCO2 251108Z 12008KT 21/20 A2997 RMK A01 T02090198  RH  093%=      5-min Rain = 0
KCO2 251109Z 12008KT 21/20 A2997 RMK A01 T02100198  RH  093%=      5-min Rain = 0
KCO2 251110Z 12008KT 21/20 A2997 RMK A01 T02090198  RH  093%=      5-min Rain = 0
KCO2 251111Z 12007KT 21/20 A2997 RMK A01 T02090198  RH  093%=      5-min Rain = 0
KCO2 251112Z 12008KT 21/20 A2997 RMK A01 T02090198  RH  093%=      5-min Rain = 0
KCO2 251113Z 12008KT 21/20 A2997 RMK A01 T02090198  RH  094%=      5-min Rain = 0
KCO2 251114Z 11008KT 21/20 A2997 RMK A01 T02090198  RH  094%=      5-min Rain = 0
KCO2 251115Z 12008KT 21/20 A2997 RMK A01 T02090198  RH  094%=      5-min Rain = 0
KCO2 251116Z 11009KT 21/20 A2997 RMK A01 T02090198  RH  094%=      5-min Rain = 0
KCO2 251117Z 12008KT 21/20 A2997 RMK A01 T02090198  RH  094%=      5-min Rain = 0
KCO2 251118Z 12008KT 21/20 A2997 RMK A01 T02090198  RH  094%=      5-min Rain = 0
KCO2 251119Z 12009KT 21/20 A2997 RMK A01 T02090198  RH  094%=      5-min Rain = 0
KCO2 251120Z 12008KT 21/20 A2997 RMK A01 T02090198  RH  094%=      5-min Rain = 0
KCO2 251121Z 11007KT 21/20 A2997 RMK A01 T02090198  RH  094%=      5-min Rain = 0
KCO2 251122Z 12009KT 21/20 A2997 RMK A01 T02090199  RH  094%=      5-min Rain = 0
KCO2 251123Z 11008KT 21/20 A2997 RMK A01 T02090199  RH  094%=      5-min Rain = 0
KCO2 251124Z 12010KT 21/20 A2997 RMK A01 T02090199  RH  094%=      5-min Rain = 0
KCO2 251125Z 12009KT 21/20 A2997 RMK A01 T02090198  RH  094%=      5-min Rain = 0
KCO2 251126Z 12009KT 21/20 A2997 RMK A01 T02090199  RH  094%=      5-min Rain = 0
KCO2 251127Z 12009KT 21/20 A2997 RMK A01 T02090198  RH  094%=      5-min Rain = 0
KCO2 251128Z 12009KT 21/20 A2997 RMK A01 T02090199  RH  094%=      5-min Rain = 0
KCO2 251129Z 13007KT 21/20 A2997 RMK A01 T02090198  RH  094%=      5-min Rain = 0
KCO2 251130Z 12010KT 21/20 A2997 RMK A01 T02090199  RH  094%=      5-min Rain = 0
KCO2 251131Z 12012KT 21/20 A2998 RMK A01 T02090199  RH  094%=      5-min Rain = 0
KCO2 251132Z 13010KT 21/20 A2998 RMK A01 T02090199  RH  094%=      5-min Rain = 0
KCO2 251133Z 12010KT 21/20 A2998 RMK A01 T02090199  RH  094%=      5-min Rain = 0
KCO2 251134Z 13008KT 21/20 A2998 RMK A01 T02090198  RH  094%=      5-min Rain = 0
KCO2 251135Z 12010KT 21/20 A2998 RMK A01 T02090199  RH  094%=      5-min Rain = 0
KCO2 251136Z 12009KT 21/20 A2998 RMK A01 T02090199  RH  094%=      5-min Rain = 0
KCO2 251137Z 13009KT 21/20 A2997 RMK A01 T02090199  RH  094%=      5-min Rain = 0
KCO2 251138Z 12010KT 21/20 A2997 RMK A01 T02090199  RH  094%=      5-min Rain = 0
KCO2 251139Z 13010KT 21/20 A2997 RMK A01 T02090199  RH  094%=      5-min Rain = 0
KCO2 251140Z 12012KT 21/20 A2997 RMK A01 T02080198  RH  094%=      5-min Rain = 0
KCO2 251141Z 12011KT 21/20 A2997 RMK A01 T02080198  RH  094%=      5-min Rain = 0
KCO2 251142Z 13009KT 21/20 A2998 RMK A01 T02080198  RH  094%=      5-min Rain = 0
KCO2 251143Z 12010KT 21/20 A2998 RMK A01 T02080199  RH  094%=      5-min Rain = 0
KCO2 251144Z 12010KT 21/20 A2998 RMK A01 T02080199  RH  094%=      5-min Rain = 0
KCO2 251145Z 12010KT 21/20 A2998 RMK A01 T02080199  RH  094%=      5-min Rain = 0
KCO2 251146Z 12010KT 21/20 A2998 RMK A01 T02080199  RH  094%=      5-min Rain = 0
KCO2 251147Z 13009KT 21/20 A2998 RMK A01 T02080199  RH  094%=      5-min Rain = 0
KCO2 251148Z 12009KT 21/20 A2998 RMK A01 T02080199  RH  094%=      5-min Rain = 0
KCO2 251149Z 12011KT 21/20 A2998 RMK A01 T02080198  RH  094%=      5-min Rain = 0
KCO2 251150Z 12011KT 21/20 A2998 RMK A01 T02080198  RH  094%=      5-min Rain = 0
KCO2 251151Z 13010KT 21/20 A2998 RMK A01 T02080198  RH  094%=      5-min Rain = 0
KCO2 251152Z 13010KT 21/20 A2998 RMK A01 T02080198  RH  094%=      5-min Rain = 0
KCO2 251153Z 13010KT 21/20 A2998 RMK A01 T02070198  RH  094%=      5-min Rain = 0
KCO2 251154Z 13010KT 21/20 A2998 RMK A01 T02080198  RH  094%=      5-min Rain = 0
KCO2 251155Z 13008KT 21/20 A2998 RMK A01 T02080198  RH  094%=      5-min Rain = 0
KCO2 251156Z 13009KT 21/20 A2998 RMK A01 T02070198  RH  094%=      5-min Rain = 0
KCO2 251157Z 13010KT 21/20 A2998 RMK A01 T02080198  RH  094%=      5-min Rain = 0
KCO2 251158Z 13009KT 21/20 A2998 RMK A01 T02080198  RH  094%=      5-min Rain = 0
KCO2 251159Z 13011KT 21/20 A2998 RMK A01 T02080198  RH  094%=      5-min Rain = 0
KCO2 251200Z 13010KT 21/20 A2998 RMK A01 T02080198  RH  094%=      5-min Rain = 0
KCO2 251201Z 13009KT 21/20 A2998 RMK A01 T02080198  RH  094%=      5-min Rain = 0
KCO2 251202Z 13007KT 21/20 A2998 RMK A01 T02080198  RH  094%=      5-min Rain = 0
KCO2 251203Z 13009KT 21/20 A2998 RMK A01 T02080198  RH  094%=      5-min Rain = 0
KCO2 251204Z 13010KT 21/20 A2998 RMK A01 T02080198  RH  094%=      5-min Rain = 0
KCO2 251205Z 13008KT 21/20 A2998 RMK A01 T02080198  RH  094%=      5-min Rain = 0
KCO2 251206Z 13007KT 21/20 A2998 RMK A01 T02080198  RH  094%=      5-min Rain = 0
KCO2 251207Z 13008KT 21/20 A2998 RMK A01 T02080198  RH  094%=      5-min Rain = 0
KCO2 251208Z 14009KT 21/20 A2998 RMK A01 T02080198  RH  094%=      5-min Rain = 0
KCO2 251209Z 13009KT 21/20 A2998 RMK A01 T02080198  RH  094%=      5-min Rain = 0
KCO2 251210Z 13009KT 21/20 A2999 RMK A01 T02080198  RH  094%=      5-min Rain = 0
KCO2 251211Z 13008KT 21/20 A2999 RMK A01 T02080198  RH  094%=      5-min Rain = 0
KCO2 251212Z 13010KT 21/20 A2999 RMK A01 T02080198  RH  094%=      5-min Rain = 0
KCO2 251213Z 13009KT 21/20 A2999 RMK A01 T02080198  RH  094%=      5-min Rain = 0
KCO2 251214Z 13009KT 21/20 A2999 RMK A01 T02080199  RH  094%=      5-min Rain = 0
KCO2 251215Z 13012KT 21/20 A2999 RMK A01 T02080199  RH  094%=      5-min Rain = 0
KCO2 251216Z 13011KT 21/20 A2999 RMK A01 T02080198  RH  094%=      5-min Rain = 0
KCO2 251217Z 14010KT 21/20 A2999 RMK A01 T02080198  RH  094%=      5-min Rain = 0
KCO2 251218Z 14010KT 21/20 A2999 RMK A01 T02090198  RH  094%=      5-min Rain = 0
KCO2 251219Z 13011KT 21/20 A2999 RMK A01 T02090198  RH  094%=      5-min Rain = 0
KCO2 251220Z 13010KT 21/20 A2999 RMK A01 T02090199  RH  094%=      5-min Rain = 0
KCO2 251221Z 13009KT 21/20 A2999 RMK A01 T02090199  RH  094%=      5-min Rain = 0
KCO2 251222Z 14010KT 21/20 A2999 RMK A01 T02090199  RH  094%=      5-min Rain = 0
KCO2 251223Z 13010KT 21/20 A2999 RMK A01 T02090199  RH  094%=      5-min Rain = 0
KCO2 251224Z 13013KT 21/20 A2999 RMK A01 T02090198  RH  094%=      5-min Rain = 0
KCO2 251225Z 13011KT 21/20 A2999 RMK A01 T02090198  RH  094%=      5-min Rain = 0
KCO2 251226Z 13011KT 21/20 A2999 RMK A01 T02090198  RH  094%=      5-min Rain = 0
KCO2 251227Z 13011KT 21/20 A2999 RMK A01 T02090198  RH  094%=      5-min Rain = 0
KCO2 251228Z 13011KT 21/20 A2999 RMK A01 T02090199  RH  094%=      5-min Rain = 0
KCO2 251229Z 13011KT 21/20 A2999 RMK A01 T02090199  RH  094%=      5-min Rain = 0
KCO2 251230Z 13011KT 21/20 A2999 RMK A01 T02100199  RH  094%=      5-min Rain = 0
KCO2 251231Z 14013KT 21/20 A2999 RMK A01 T02090199  RH  094%=      5-min Rain = 0
KCO2 251232Z 13013KT 21/20 A2999 RMK A01 T02100199  RH  094%=      5-min Rain = 0
KCO2 251233Z 13015KT 21/20 A2999 RMK A01 T02090199  RH  094%=      5-min Rain = 0
KCO2 251234Z 13013KT 21/20 A2999 RMK A01 T02100199  RH  094%=      5-min Rain = 0
KCO2 251235Z 14012KT 21/20 A2999 RMK A01 T02100200  RH  094%=      5-min Rain = 0
KCO2 251236Z 14013KT 21/20 A2999 RMK A01 T02100200  RH  094%=      5-min Rain = 0
KCO2 251237Z 14011KT 21/20 A2999 RMK A01 T02100200  RH  094%=      5-min Rain = 0
KCO2 251238Z 14010KT 21/20 A2999 RMK A01 T02100200  RH  094%=      5-min Rain = 0
KCO2 251239Z 14010KT 21/20 A2999 RMK A01 T02100200  RH  094%=      5-min Rain = 0
KCO2 251240Z 14009KT 21/20 A2999 RMK A01 T02110201  RH  094%=      5-min Rain = 0
KCO2 251241Z 15011KT 21/20 A2999 RMK A01 T02110201  RH  094%=      5-min Rain = 0
KCO2 251242Z 14011KT 21/20 A2999 RMK A01 T02110201  RH  094%=      5-min Rain = 0
KCO2 251243Z 15013KT 21/20 A2999 RMK A01 T02110201  RH  094%=      5-min Rain = 0
KCO2 251244Z 14010KT 21/20 A2999 RMK A01 T02110201  RH  094%=      5-min Rain = 0
KCO2 251245Z 14010KT 21/20 A2999 RMK A01 T02120202  RH  094%=      5-min Rain = 0
KCO2 251246Z 14010KT 21/20 A2999 RMK A01 T02130202  RH  094%=      5-min Rain = 0
KCO2 251247Z 15012KT 21/20 A2999 RMK A01 T02130202  RH  094%=      5-min Rain = 0
KCO2 251248Z 14011KT 21/20 A2999 RMK A01 T02130202  RH  093%=      5-min Rain = 0
KCO2 251249Z 14011KT 21/20 A2999 RMK A01 T02140202  RH  093%=      5-min Rain = 0
KCO2 251250Z 14012KT 21/20 A2999 RMK A01 T02140202  RH  093%=      5-min Rain = 0
KCO2 251251Z 14015KT 21/20 A2999 RMK A01 T02140201  RH  092%=      5-min Rain = 0
KCO2 251252Z 14014KT 21/20 A2999 RMK A01 T02140201  RH  092%=      5-min Rain = 0
KCO2 251253Z 15013KT 21/20 A2999 RMK A01 T02140201  RH  092%=      5-min Rain = 0
KCO2 251254Z 15014KT 21/20 A2999 RMK A01 T02140201  RH  092%=      5-min Rain = 0
KCO2 251255Z 15014KT 22/20 A30 RMK A01 T02150201  RH  092%=      5-min Rain = 0
KCO2 251256Z 14012G18KT 22/20 A30 RMK A01 T02150201  RH  092%=      5-min Rain = 0
KCO2 251257Z 14015KT 22/20 A30 RMK A01 T02150201  RH  092%=      5-min Rain = 0
KCO2 251258Z 15015KT 22/20 A30 RMK A01 T02150201  RH  091%=      5-min Rain = 0
KCO2 251259Z 15013KT 22/20 A30 RMK A01 T02160201  RH  091%=      5-min Rain = 0
KCO2 251300Z 14014G20KT 22/20 A30 RMK A01 T02150201  RH  091%=      5-min Rain = 0
KCO2 251301Z 15014KT 22/20 A30 RMK A01 T02150200  RH  091%=      5-min Rain = 0
KCO2 251302Z 14016KT 22/20 A30 RMK A01 T02160200  RH  091%=      5-min Rain = 0
KCO2 251303Z 15015KT 22/20 A30 RMK A01 T02160201  RH  091%=      5-min Rain = 0
KCO2 251304Z 15013KT 22/20 A30 RMK A01 T02160201  RH  091%=      5-min Rain = 0
KCO2 251305Z 14011KT 22/20 A30 RMK A01 T02170201  RH  091%=      5-min Rain = 0
KCO2 251306Z 14014KT 22/20 A30 RMK A01 T02170201  RH  091%=      5-min Rain = 0
KCO2 251307Z 14016KT 22/20 A30 RMK A01 T02170201  RH  091%=      5-min Rain = 0
KCO2 251308Z 14014KT 22/20 A30 RMK A01 T02170201  RH  090%=      5-min Rain = 0
KCO2 251309Z 14011KT 22/20 A30 RMK A01 T02170201  RH  090%=      5-min Rain = 0
KCO2 251310Z 14014G19KT 22/20 A30 RMK A01 T02180201  RH  090%=      5-min Rain = 0
KCO2 251311Z 14014KT 22/20 A30 RMK A01 T02180200  RH  090%=      5-min Rain = 0
KCO2 251312Z 14013KT 22/20 A30 RMK A01 T02180201  RH  090%=      5-min Rain = 0
KCO2 251313Z 15015KT 22/20 A30 RMK A01 T02180200  RH  090%=      5-min Rain = 0
KCO2 251314Z 15016KT 22/20 A30 RMK A01 T02180200  RH  090%=      5-min Rain = 0
KCO2 251315Z 15013KT 22/20 A30 RMK A01 T02180200  RH  090%=      5-min Rain = 0
KCO2 251316Z 15013KT 22/20 A30 RMK A01 T02180201  RH  090%=      5-min Rain = 0
KCO2 251317Z 14012KT 22/20 A30 RMK A01 T02180200  RH  090%=      5-min Rain = 0
KCO2 251318Z 15016G22KT 22/20 A30 RMK A01 T02180201  RH  090%=      5-min Rain = 0
KCO2 251319Z 15016KT 22/20 A30 RMK A01 T02180200  RH  089%=      5-min Rain = 0
KCO2 251320Z 14014KT 22/20 A30 RMK A01 T02180200  RH  089%=      5-min Rain = 0
KCO2 251321Z 15015KT 22/20 A30 RMK A01 T02180199  RH  089%=      5-min Rain = 0
KCO2 251322Z 15013G18KT 22/20 A30 RMK A01 T02180199  RH  089%=      5-min Rain = 0
KCO2 251323Z 15014KT 22/20 A30 RMK A01 T02190200  RH  089%=      5-min Rain = 0
KCO2 251324Z 14013KT 22/20 A30 RMK A01 T02190200  RH  089%=      5-min Rain = 0
KCO2 251325Z 14013KT 22/20 A30 RMK A01 T02200201  RH  089%=      5-min Rain = 0
KCO2 251326Z 14012KT 22/20 A30 RMK A01 T02200200  RH  089%=      5-min Rain = 0
KCO2 251327Z 14011KT 22/20 A30 RMK A01 T02210201  RH  089%=      5-min Rain = 0
KCO2 251328Z 14012KT 22/20 A30 RMK A01 T02210201  RH  088%=      5-min Rain = 0
KCO2 251329Z 14013KT 22/20 A30 RMK A01 T02220201  RH  088%=      5-min Rain = 0
KCO2 251330Z 14014KT 22/20 A30 RMK A01 T02220201  RH  088%=      5-min Rain = 0
KCO2 251331Z 14014KT 22/20 A30 RMK A01 T02220200  RH  087%=      5-min Rain = 0
KCO2 251332Z 14014KT 22/20 A30 RMK A01 T02220201  RH  087%=      5-min Rain = 0
KCO2 251333Z 14015KT 22/20 A30 RMK A01 T02220200  RH  087%=      5-min Rain = 0
KCO2 251334Z 15014KT 22/20 A30 RMK A01 T02220200  RH  087%=      5-min Rain = 0
KCO2 251335Z 14013KT 22/20 A30 RMK A01 T02220200  RH  087%=      5-min Rain = 0
KCO2 251336Z 15013KT 22/20 A30 RMK A01 T02220200  RH  087%=      5-min Rain = 0
KCO2 251337Z 15011KT 22/20 A30 RMK A01 T02230201  RH  087%=      5-min Rain = 0
KCO2 251338Z 14012KT 22/20 A30 RMK A01 T02240202  RH  087%=      5-min Rain = 0
KCO2 251339Z 14013KT 23/20 A30 RMK A01 T02250201  RH  087%=      5-min Rain = 0
KCO2 251340Z 14013KT 23/20 A30 RMK A01 T02250201  RH  086%=      5-min Rain = 0
KCO2 251341Z 14016KT 23/20 A30 RMK A01 T02250200  RH  086%=      5-min Rain = 0
KCO2 251342Z 14014KT 22/20 A30 RMK A01 T02240199  RH  086%=      5-min Rain = 0
KCO2 251343Z 15012KT 22/20 A30 RMK A01 T02230201  RH  087%=      5-min Rain = 0
KCO2 251344Z 14012KT 22/20 A30 RMK A01 T02230201  RH  087%=      5-min Rain = 0
KCO2 251345Z 14012G17KT 22/20 A30 RMK A01 T02240202  RH  087%=      5-min Rain = 0
KCO2 251346Z 14017G22KT 23/20 A30 RMK A01 T02260201  RH  086%=      5-min Rain = 0
KCO2 251347Z 14015KT 23/20 A30 RMK A01 T02260199  RH  085%=      5-min Rain = 0
KCO2 251348Z 14016KT 23/20 A30 RMK A01 T02260200  RH  085%=      5-min Rain = 0
KCO2 251349Z 15016KT 23/20 A30 RMK A01 T02260200  RH  085%=      5-min Rain = 0
KCO2 251350Z 13016KT 23/20 A30 RMK A01 T02260199  RH  085%=      5-min Rain = 0
KCO2 251351Z 14014KT 23/20 A30 RMK A01 T02250200  RH  085%=      5-min Rain = 0
KCO2 251352Z 14014KT 23/20 A30 RMK A01 T02250200  RH  086%=      5-min Rain = 0
KCO2 251353Z 14014KT 23/20 A30 RMK A01 T02250200  RH  085%=      5-min Rain = 0
KCO2 251354Z 15013KT 23/20 A30 RMK A01 T02260201  RH  085%=      5-min Rain = 0
KCO2 251355Z 14018KT 23/20 A30 RMK A01 T02280201  RH  085%=      5-min Rain = 0
KCO2 251356Z 14016G21KT 23/20 A30 RMK A01 T02280200  RH  084%=      5-min Rain = 0
KCO2 251357Z 14019KT 23/20 A30 RMK A01 T02280200  RH  084%=      5-min Rain = 0
KCO2 251358Z 14017KT 23/20 A30 RMK A01 T02290199  RH  083%=      5-min Rain = 0
KCO2 251359Z 15016KT 23/20 A30 RMK A01 T02290200  RH  083%=      5-min Rain = 0
KCO2 251400Z 15016G21KT 23/20 A30 RMK A01 T02300200  RH  083%=      5-min Rain = 0
KCO2 251401Z 15018KT 23/20 A30 RMK A01 T02320201  RH  083%=      5-min Rain = 0
KCO2 251402Z 15015KT 23/20 A30 RMK A01 T02320200  RH  082%=      5-min Rain = 0
KCO2 251403Z 14014KT 23/20 A30 RMK A01 T02330201  RH  082%=      5-min Rain = 0
KCO2 251404Z 14012KT 23/20 A30 RMK A01 T02340203  RH  083%=      5-min Rain = 0
KCO2 251405Z 15014KT 24/20 A30 RMK A01 T02360204  RH  083%=      5-min Rain = 0
KCO2 251406Z 14016KT 24/20 A30 RMK A01 T02360203  RH  082%=      5-min Rain = 0
KCO2 251407Z 14017KT 23/20 A30 RMK A01 T02340201  RH  082%=      5-min Rain = 0
KCO2 251408Z 14016KT 23/20 A30 RMK A01 T02310200  RH  083%=      5-min Rain = 0
KCO2 251409Z 14015KT 23/20 A30 RMK A01 T02300201  RH  084%=      5-min Rain = 0
KCO2 251410Z 14013KT 23/20 A30 RMK A01 T02290201  RH  084%=      5-min Rain = 0
KCO2 251411Z 14014G20KT 23/20 A3001 RMK A01 T02290201  RH  084%=      5-min Rain = 0
KCO2 251412Z 15017KT 23/20 A3001 RMK A01 T02300201  RH  084%=      5-min Rain = 0
KCO2 251413Z 14018KT 23/20 A3001 RMK A01 T02310201  RH  084%=      5-min Rain = 0
KCO2 251414Z 14015KT 23/20 A30 RMK A01 T02300200  RH  083%=      5-min Rain = 0
KCO2 251415Z 14016KT 23/20 A30 RMK A01 T02310201  RH  084%=      5-min Rain = 0
KCO2 251416Z 15019KT 23/20 A30 RMK A01 T02310200  RH  083%=      5-min Rain = 0
KCO2 251417Z 14016KT 23/20 A3001 RMK A01 T02310201  RH  083%=      5-min Rain = 0
KCO2 251418Z 15015KT 23/20 A30 RMK A01 T02310201  RH  083%=      5-min Rain = 0
KCO2 251419Z 14016KT 23/20 A3001 RMK A01 T02310202  RH  084%=      5-min Rain = 0
KCO2 251420Z 14016KT 23/20 A3001 RMK A01 T02320202  RH  083%=      5-min Rain = 0
KCO2 251421Z 14017KT 23/20 A3001 RMK A01 T02330202  RH  083%=      5-min Rain = 0
KCO2 251422Z 15014KT 23/20 A3001 RMK A01 T02330202  RH  083%=      5-min Rain = 0
KCO2 251423Z 14013KT 23/20 A3001 RMK A01 T02330203  RH  083%=      5-min Rain = 0
KCO2 251424Z 14013KT 23/20 A3001 RMK A01 T02340203  RH  083%=      5-min Rain = 0
KCO2 251425Z 14013G19KT 24/20 A3001 RMK A01 T02350204  RH  083%=      5-min Rain = 0
KCO2 251426Z 14014KT 24/20 A3001 RMK A01 T02360203  RH  082%=      5-min Rain = 0
KCO2 251427Z 15012KT 24/20 A3001 RMK A01 T02360203  RH  082%=      5-min Rain = 0
KCO2 251428Z 14014KT 24/20 A3001 RMK A01 T02350204  RH  082%=      5-min Rain = 0
KCO2 251429Z 15013KT 24/20 A3001 RMK A01 T02350204  RH  083%=      5-min Rain = 0
KCO2 251430Z 15013KT 24/21 A3001 RMK A01 T02360205  RH  083%=      5-min Rain = 0
KCO2 251431Z 15016KT 24/20 A30 RMK A01 T02370204  RH  082%=      5-min Rain = 0
KCO2 251432Z 15015KT 24/20 A30 RMK A01 T02370204  RH  082%=      5-min Rain = 0
KCO2 251433Z 14013G19KT 24/20 A3001 RMK A01 T02370204  RH  082%=      5-min Rain = 0
KCO2 251434Z 15018KT 24/20 A30 RMK A01 T02360203  RH  082%=      5-min Rain = 0
KCO2 251435Z 15017KT 23/20 A3001 RMK A01 T02340202  RH  082%=      5-min Rain = 0
KCO2 251436Z 15015KT 23/20 A3001 RMK A01 T02340203  RH  083%=      5-min Rain = 0
KCO2 251437Z 15015G20KT 23/20 A3001 RMK A01 T02340204  RH  083%=      5-min Rain = 0
KCO2 251438Z 15016KT 23/20 A30 RMK A01 T02340203  RH  083%=      5-min Rain = 0
KCO2 251439Z 15012KT 23/20 A30 RMK A01 T02340204  RH  083%=      5-min Rain = 0
KCO2 251440Z 15014G21KT 24/20 A3001 RMK A01 T02350204  RH  083%=      5-min Rain = 0
KCO2 251441Z 16018KT 24/20 A30 RMK A01 T02350203  RH  082%=      5-min Rain = 0
KCO2 251442Z 15016KT 23/20 A30 RMK A01 T02340202  RH  082%=      5-min Rain = 0
KCO2 251443Z 15014KT 23/20 A3001 RMK A01 T02330203  RH  083%=      5-min Rain = 0
KCO2 251444Z 15019KT 23/20 A30 RMK A01 T02330202  RH  083%=      5-min Rain = 0
KCO2 251445Z 16018KT 23/20 A30 RMK A01 T02330202  RH  083%=      5-min Rain = 0
KCO2 251446Z 16017KT 23/20 A30 RMK A01 T02340203  RH  083%=      5-min Rain = 0
KCO2 251447Z 15018KT 23/20 A30 RMK A01 T02340202  RH  082%=      5-min Rain = 0
KCO2 251448Z 16016KT 23/20 A30 RMK A01 T02340202  RH  082%=      5-min Rain = 0
KCO2 251449Z 16014G19KT 24/20 A30 RMK A01 T02350203  RH  082%=      5-min Rain = 0
KCO2 251450Z 15017KT 24/20 A30 RMK A01 T02350203  RH  082%=      5-min Rain = 0
KCO2 251451Z 15015G20KT 24/20 A30 RMK A01 T02350203  RH  082%=      5-min Rain = 0
KCO2 251452Z 15018KT 24/20 A30 RMK A01 T02360203  RH  082%=      5-min Rain = 0
KCO2 251453Z 15019G24KT 24/20 A30 RMK A01 T02370203  RH  081%=      5-min Rain = 0
KCO2 251454Z 15020KT 24/20 A30 RMK A01 T02370202  RH  080%=      5-min Rain = 0
KCO2 251455Z 15019KT 24/20 A30 RMK A01 T02380202  RH  080%=      5-min Rain = 0
KCO2 251456Z 15020KT 24/20 A30 RMK A01 T02400203  RH  080%=      5-min Rain = 0
KCO2 251457Z 16015G20KT 24/20 A30 RMK A01 T02420204  RH  080%=      5-min Rain = 0
KCO2 251458Z 16020G25KT 24/21 A3001 RMK A01 T02440205  RH  079%=      5-min Rain = 0
KCO2 251459Z 16018G25KT 24/20 A30 RMK A01 T02420202  RH  078%=      5-min Rain = 0
KCO2 251500Z 16018G23KT 24/20 A3001 RMK A01 T02400203  RH  080%=      5-min Rain = 0
KCO2 251501Z 16020KT 24/20 A3001 RMK A01 T02390202  RH  080%=      5-min Rain = 0
KCO2 251502Z 15019G24KT 24/20 A3001 RMK A01 T02380202  RH  080%=      5-min Rain = 0
KCO2 251503Z 16017KT 24/20 A3001 RMK A01 T02380203  RH  081%=      5-min Rain = 0
KCO2 251504Z 16017G24KT 24/20 A3001 RMK A01 T02380203  RH  081%=      5-min Rain = 0
KCO2 251505Z 16019KT 24/20 A3001 RMK A01 T02380202  RH  080%=      5-min Rain = 0
KCO2 251506Z 16018KT 24/20 A3001 RMK A01 T02380203  RH  080%=      5-min Rain = 0
KCO2 251507Z 16016G21KT 24/20 A3001 RMK A01 T02390203  RH  080%=      5-min Rain = 0
KCO2 251508Z 15015G20KT 24/20 A3001 RMK A01 T02390203  RH  080%=      5-min Rain = 0
KCO2 251509Z 16015KT 24/20 A3001 RMK A01 T02400203  RH  080%=      5-min Rain = 0
KCO2 251510Z 15015KT 24/20 A3001 RMK A01 T02400204  RH  080%=      5-min Rain = 0
KCO2 251511Z 16016KT 24/20 A3001 RMK A01 T02400204  RH  080%=      5-min Rain = 0
KCO2 251512Z 15012KT 24/21 A3001 RMK A01 T02400205  RH  080%=      5-min Rain = 0
KCO2 251513Z 16013KT 24/21 A3001 RMK A01 T02400205  RH  081%=      5-min Rain = 0
KCO2 251514Z 14012KT 24/21 A3001 RMK A01 T02400206  RH  081%=      5-min Rain = 0
KCO2 251515Z 15015G20KT 24/21 A3001 RMK A01 T02400205  RH  080%=      5-min Rain = 0
KCO2 251516Z 16016G21KT 24/20 A3001 RMK A01 T02400204  RH  080%=      5-min Rain = 0
KCO2 251517Z 15013G18KT 24/20 A3001 RMK A01 T02390203  RH  080%=      5-min Rain = 0
KCO2 251518Z 16014KT 24/20 A3001 RMK A01 T02390204  RH  081%=      5-min Rain = 0
KCO2 251519Z 15018KT 24/20 A3001 RMK A01 T02390203  RH  081%=      5-min Rain = 0
KCO2 251520Z 15018KT 24/20 A3001 RMK A01 T02370202  RH  081%=      5-min Rain = 0
KCO2 251521Z 15017KT 24/20 A3001 RMK A01 T02370203  RH  081%=      5-min Rain = 0
KCO2 251522Z 15016KT 24/20 A3001 RMK A01 T02370203  RH  081%=      5-min Rain = 0
KCO2 251523Z 15013KT 24/20 A3001 RMK A01 T02370203  RH  081%=      5-min Rain = 0
KCO2 251524Z 14015G20KT 24/20 A3001 RMK A01 T02370204  RH  082%=      5-min Rain = 0
KCO2 251525Z 16017KT 24/20 A3001 RMK A01 T02370203  RH  081%=      5-min Rain = 0
KCO2 251526Z 16014KT 24/20 A3001 RMK A01 T02370203  RH  082%=      5-min Rain = 0
KCO2 251527Z 15015KT 24/20 A3001 RMK A01 T02360204  RH  082%=      5-min Rain = 0
KCO2 251528Z 15015G20KT 24/20 A3001 RMK A01 T02360203  RH  081%=      5-min Rain = 0
KCO2 251529Z 15014KT 24/20 A3001 RMK A01 T02360203  RH  082%=      5-min Rain = 0
KCO2 251530Z 15011G16KT 24/20 A3001 RMK A01 T02360204  RH  082%=      5-min Rain = 0
KCO2 251531Z 15015KT 24/20 A3001 RMK A01 T02360204  RH  082%=      5-min Rain = 0
KCO2 251532Z 15013KT 24/20 A3001 RMK A01 T02360204  RH  082%=      5-min Rain = 0
KCO2 251533Z 15013KT 24/20 A3001 RMK A01 T02360204  RH  082%=      5-min Rain = 0
KCO2 251534Z 15014KT 24/20 A3001 RMK A01 T02360204  RH  082%=      5-min Rain = 0
KCO2 251535Z 14014KT 24/20 A3001 RMK A01 T02360203  RH  082%=      5-min Rain = 0
KCO2 251536Z 15014KT 24/20 A3001 RMK A01 T02350204  RH  083%=      5-min Rain = 0
KCO2 251537Z 15014KT 24/20 A3001 RMK A01 T02350203  RH  083%=      5-min Rain = 0
KCO2 251538Z 16013KT 23/20 A3001 RMK A01 T02340204  RH  083%=      5-min Rain = 0
KCO2 251539Z 15011G16KT 23/20 A3001 RMK A01 T02340204  RH  083%=      5-min Rain = 0
KCO2 251540Z 16012KT 24/21 A3002 RMK A01 T02350205  RH  083%=      5-min Rain = 0
KCO2 251541Z 16015KT 24/20 A3001 RMK A01 T02360204  RH  083%=      5-min Rain = 0
KCO2 251542Z 16014KT 24/20 A3002 RMK A01 T02360204  RH  082%=      5-min Rain = 0
KCO2 251543Z 15015KT 24/20 A3002 RMK A01 T02350204  RH  083%=      5-min Rain = 0
KCO2 251544Z 15016KT 23/20 A3002 RMK A01 T02340203  RH  083%=      5-min Rain = 0
KCO2 251545Z 15013KT 23/20 A3002 RMK A01 T02340203  RH  083%=      5-min Rain = 0
KCO2 251546Z 15015G21KT 23/20 A3002 RMK A01 T02330204  RH  083%=      5-min Rain = 0
KCO2 251547Z 15013KT 23/20 A3002 RMK A01 T02330204  RH  083%=      5-min Rain = 0
KCO2 251548Z 16015KT 23/20 A3001 RMK A01 T02340203  RH  083%=      5-min Rain = 0
KCO2 251549Z 15016KT 24/20 A3001 RMK A01 T02350204  RH  083%=      5-min Rain = 0
KCO2 251550Z 15016KT 23/20 A3001 RMK A01 T02340203  RH  083%=      5-min Rain = 0
KCO2 251551Z 15017G22KT 23/20 A3002 RMK A01 T02340203  RH  083%=      5-min Rain = 0
KCO2 251552Z 15018KT 23/20 A3002 RMK A01 T02330202  RH  083%=      5-min Rain = 0
KCO2 251553Z 14015KT 23/20 A3002 RMK A01 T02320202  RH  083%=      5-min Rain = 0
KCO2 251554Z 15013KT 23/20 A3002 RMK A01 T02320203  RH  084%=      5-min Rain = 0
KCO2 251555Z 15016G21KT 23/20 A3002 RMK A01 T02320203  RH  084%=      5-min Rain = 0
KCO2 251556Z 15018KT 23/20 A3002 RMK A01 T02320203  RH  084%=      5-min Rain = 0
KCO2 251557Z 16016KT 23/20 A3002 RMK A01 T02310203  RH  084%=      5-min Rain = 0
KCO2 251558Z 15018KT 23/20 A3001 RMK A01 T02310203  RH  084%=      5-min Rain = 0
KCO2 251559Z 16016KT 23/20 A3001 RMK A01 T02310203  RH  084%=      5-min Rain = 0
KCO2 251600Z 16016KT 23/20 A3002 RMK A01 T02310203  RH  084%=      5-min Rain = 0
KCO2 251601Z 16013G18KT 23/20 A3002 RMK A01 T02310203  RH  084%=      5-min Rain = 0
KCO2 251602Z 15014G19KT 23/20 A3002 RMK A01 T02310204  RH  085%=      5-min Rain = 0
KCO2 251603Z 15015KT 23/20 A3002 RMK A01 T02320204  RH  084%=      5-min Rain = 0
KCO2 251604Z 15015G20KT 23/20 A3001 RMK A01 T02320204  RH  084%=      5-min Rain = 0
KCO2 251605Z 14017KT 23/20 A3001 RMK A01 T02330204  RH  084%=      5-min Rain = 0
KCO2 251606Z 15016KT 23/20 A3002 RMK A01 T02340204  RH  083%=      5-min Rain = 0
KCO2 251607Z 15013KT 23/20 A3002 RMK A01 T02340204  RH  083%=      5-min Rain = 0
KCO2 251608Z 15014KT 23/21 A3002 RMK A01 T02340205  RH  083%=      5-min Rain = 0
KCO2 251609Z 15014KT 24/21 A3001 RMK A01 T02350205  RH  083%=      5-min Rain = 0
KCO2 251610Z 16016KT 24/21 A3001 RMK A01 T02370206  RH  083%=      5-min Rain = 0
KCO2 251611Z 15017KT 24/21 A3001 RMK A01 T02370205  RH  082%=      5-min Rain = 0
KCO2 251612Z 16016KT 24/20 A3001 RMK A01 T02370204  RH  082%=      5-min Rain = 0
KCO2 251613Z 14015KT 24/21 A3001 RMK A01 T02380206  RH  082%=      5-min Rain = 0
KCO2 251614Z 16013KT 24/21 A3001 RMK A01 T02390206  RH  082%=      5-min Rain = 0
KCO2 251615Z 15015KT 24/21 A3001 RMK A01 T02410207  RH  082%=      5-min Rain = 0
KCO2 251616Z 15015KT 24/21 A3001 RMK A01 T02420207  RH  081%=      5-min Rain = 0
KCO2 251617Z 16014KT 24/21 A3001 RMK A01 T02430208  RH  081%=      5-min Rain = 0
KCO2 251618Z 15012KT 24/21 A3001 RMK A01 T02440209  RH  081%=      5-min Rain = 0
KCO2 251619Z 15015KT 25/21 A3001 RMK A01 T02460209  RH  080%=      5-min Rain = 0
KCO2 251620Z 16015KT 25/21 A3001 RMK A01 T02460209  RH  080%=      5-min Rain = 0
KCO2 251621Z 15016G21KT 25/21 A3001 RMK A01 T02460208  RH  079%=      5-min Rain = 0
KCO2 251622Z 15016KT 25/21 A3001 RMK A01 T02460207  RH  079%=      5-min Rain = 0
KCO2 251623Z 15015KT 25/21 A3001 RMK A01 T02450208  RH  080%=      5-min Rain = 0
KCO2 251624Z 15017KT 25/21 A3001 RMK A01 T02450207  RH  079%=      5-min Rain = 0
KCO2 251625Z 16018KT 24/21 A3001 RMK A01 T02440207  RH  080%=      5-min Rain = 0
KCO2 251626Z 16019KT 24/21 A3001 RMK A01 T02440207  RH  080%=      5-min Rain = 0
KCO2 251627Z 16018KT 24/21 A3001 RMK A01 T02440206  RH  079%=      5-min Rain = 0
KCO2 251628Z 16016KT 24/21 A3001 RMK A01 T02440206  RH  079%=      5-min Rain = 0
KCO2 251629Z 16017KT 24/21 A3001 RMK A01 T02440206  RH  079%=      5-min Rain = 0
KCO2 251630Z 16015KT 25/21 A3001 RMK A01 T02450206  RH  079%=      5-min Rain = 0
KCO2 251631Z 17013KT 25/21 A3001 RMK A01 T02450208  RH  080%=      5-min Rain = 0
KCO2 251632Z 17015KT 25/21 A3001 RMK A01 T02470209  RH  080%=      5-min Rain = 0
KCO2 251633Z 16013KT 25/21 A3001 RMK A01 T02470209  RH  079%=      5-min Rain = 0
KCO2 251634Z 16011G17KT 25/21 A3001 RMK A01 T02460209  RH  080%=      5-min Rain = 0
KCO2 251635Z 16015G20KT 25/21 A3001 RMK A01 T02460209  RH  080%=      5-min Rain = 0
KCO2 251636Z 16016G21KT 25/21 A3001 RMK A01 T02460209  RH  080%=      5-min Rain = 0
KCO2 251637Z 16020KT 25/21 A3001 RMK A01 T02450207  RH  079%=      5-min Rain = 0
KCO2 251638Z 16016KT 24/21 A3001 RMK A01 T02440206  RH  080%=      5-min Rain = 0
KCO2 251639Z 16014KT 24/21 A3001 RMK A01 T02430207  RH  080%=      5-min Rain = 0
KCO2 251640Z 16014KT 24/21 A3001 RMK A01 T02430207  RH  080%=      5-min Rain = 0
KCO2 251641Z 16013KT 24/21 A3001 RMK A01 T02430208  RH  081%=      5-min Rain = 0
KCO2 251642Z 16018KT 24/21 A3001 RMK A01 T02430208  RH  081%=      5-min Rain = 0
KCO2 251643Z 16014KT 24/21 A3001 RMK A01 T02420207  RH  081%=      5-min Rain = 0
KCO2 251644Z 16015KT 24/21 A3001 RMK A01 T02420208  RH  081%=      5-min Rain = 0
KCO2 251645Z 15015KT 24/21 A3001 RMK A01 T02420208  RH  082%=      5-min Rain = 0
KCO2 251646Z 15014KT 24/21 A3001 RMK A01 T02420208  RH  081%=      5-min Rain = 0
KCO2 251647Z 15015KT 24/21 A3001 RMK A01 T02420208  RH  081%=      5-min Rain = 0
KCO2 251648Z 16015KT 24/21 A3001 RMK A01 T02430209  RH  081%=      5-min Rain = 0
KCO2 251649Z 15015G20KT 24/21 A3001 RMK A01 T02440209  RH  081%=      5-min Rain = 0
KCO2 251650Z 14015KT 25/21 A3001 RMK A01 T02450210  RH  081%=      5-min Rain = 0
KCO2 251651Z 15016KT 25/21 A3001 RMK A01 T02460210  RH  080%=      5-min Rain = 0
KCO2 251652Z 15014KT 25/21 A3001 RMK A01 T02460210  RH  080%=      5-min Rain = 0
KCO2 251653Z 15017KT 25/21 A3001 RMK A01 T02460209  RH  080%=      5-min Rain = 0
KCO2 251654Z 15014G19KT 25/21 A3001 RMK A01 T02470209  RH  080%=      5-min Rain = 0
KCO2 251655Z 15014KT 25/21 A3001 RMK A01 T02470210  RH  080%=      5-min Rain = 0
KCO2 251656Z 15015KT 25/21 A3001 RMK A01 T02470210  RH  080%=      5-min Rain = 0
KCO2 251657Z 15015KT 25/21 A30 RMK A01 T02480210  RH  079%=      5-min Rain = 0
KCO2 251658Z 15016KT 25/21 A3001 RMK A01 T02480210  RH  080%=      5-min Rain = 0
KCO2 251659Z 15016KT 25/21 A30 RMK A01 T02480210  RH  079%=      5-min Rain = 0
KCO2 251700Z 15015KT 25/21 A3001 RMK A01 T02480210  RH  079%=      5-min Rain = 0
KCO2 251701Z 15013G19KT 25/21 A30 RMK A01 T02490211  RH  079%=      5-min Rain = 0
KCO2 251702Z 15014KT 25/21 A30 RMK A01 T02510212  RH  079%=      5-min Rain = 0
KCO2 251703Z 15014G21KT 25/21 A30 RMK A01 T02520212  RH  079%=      5-min Rain = 0
KCO2 251704Z 15018KT 25/21 A30 RMK A01 T02530210  RH  077%=      5-min Rain = 0
KCO2 251705Z 15018KT 25/21 A30 RMK A01 T02520209  RH  077%=      5-min Rain = 0
KCO2 251706Z 15017KT 25/21 A30 RMK A01 T02500209  RH  078%=      5-min Rain = 0
KCO2 251707Z 15015KT 25/21 A30 RMK A01 T02490210  RH  079%=      5-min Rain = 0
KCO2 251708Z 15014KT 25/21 A30 RMK A01 T02500211  RH  079%=      5-min Rain = 0
KCO2 251709Z 15013G18KT 25/21 A30 RMK A01 T02510212  RH  079%=      5-min Rain = 0
KCO2 251710Z 15013G19KT 25/21 A30 RMK A01 T02510212  RH  079%=      5-min Rain = 0
KCO2 251711Z 16016KT 25/21 A30 RMK A01 T02520211  RH  078%=      5-min Rain = 0
KCO2 251712Z 15014KT 25/21 A30 RMK A01 T02510212  RH  079%=      5-min Rain = 0
KCO2 251713Z 15013KT 25/21 A30 RMK A01 T02510212  RH  079%=      5-min Rain = 0
KCO2 251714Z 16016KT 25/21 A30 RMK A01 T02520212  RH  079%=      5-min Rain = 0
KCO2 251715Z 16017KT 25/21 A30 RMK A01 T02520211  RH  078%=      5-min Rain = 0
KCO2 251716Z 16013KT 25/21 A30 RMK A01 T02520211  RH  078%=      5-min Rain = 0
KCO2 251717Z 16015KT 25/21 A30 RMK A01 T02520211  RH  078%=      5-min Rain = 0
KCO2 251718Z 16015KT 25/21 A30 RMK A01 T02520212  RH  078%=      5-min Rain = 0
KCO2 251719Z 16018G23KT 25/21 A30 RMK A01 T02520212  RH  078%=      5-min Rain = 0
KCO2 251720Z 16019KT 25/21 A30 RMK A01 T02520210  RH  077%=      5-min Rain = 0
KCO2 251721Z 16016KT 25/21 A30 RMK A01 T02510210  RH  078%=      5-min Rain = 0
KCO2 251722Z 16015G20KT 25/21 A30 RMK A01 T02500211  RH  079%=      5-min Rain = 0
KCO2 251723Z 16015G20KT 25/21 A30 RMK A01 T02500211  RH  079%=      5-min Rain = 0
KCO2 251724Z 16013KT 25/21 A30 RMK A01 T02510212  RH  079%=      5-min Rain = 0
KCO2 251725Z 17013KT 25/21 A30 RMK A01 T02520213  RH  079%=      5-min Rain = 0
KCO2 251726Z 16014G19KT 25/21 A30 RMK A01 T02540213  RH  078%=      5-min Rain = 0
KCO2 251727Z 15018KT 25/21 A30 RMK A01 T02540211  RH  077%=      5-min Rain = 0
KCO2 251728Z 15017KT 25/21 A30 RMK A01 T02540211  RH  077%=      5-min Rain = 0
KCO2 251729Z 15012KT 25/21 A30 RMK A01 T02540213  RH  078%=      5-min Rain = 0
KCO2 251730Z 15018KT 26/21 A30 RMK A01 T02550212  RH  077%=      5-min Rain = 0
KCO2 251731Z 16016KT 26/21 A30 RMK A01 T02550212  RH  077%=      5-min Rain = 0
KCO2 251732Z 16015KT 26/21 A30 RMK A01 T02560213  RH  077%=      5-min Rain = 0
KCO2 251733Z 16017G22KT 26/21 A30 RMK A01 T02570212  RH  077%=      5-min Rain = 0
KCO2 251734Z 16016KT 26/21 A30 RMK A01 T02560211  RH  076%=      5-min Rain = 0
KCO2 251735Z 16018KT 26/21 A30 RMK A01 T02550212  RH  077%=      5-min Rain = 0
KCO2 251736Z 16019KT 26/21 A30 RMK A01 T02550212  RH  077%=      5-min Rain = 0
KCO2 251737Z 16018G23KT 26/21 A30 RMK A01 T02550210  RH  076%=      5-min Rain = 0
KCO2 251738Z 16014G19KT 25/21 A30 RMK A01 T02540212  RH  077%=      5-min Rain = 0
KCO2 251739Z 15016KT 25/21 A30 RMK A01 T02540211  RH  077%=      5-min Rain = 0
KCO2 251740Z 16017KT 26/21 A30 RMK A01 T02550211  RH  077%=      5-min Rain = 0
KCO2 251741Z 16017KT 26/21 A30 RMK A01 T02550211  RH  077%=      5-min Rain = 0
KCO2 251742Z 15017KT 25/21 A30 RMK A01 T02540211  RH  077%=      5-min Rain = 0
KCO2 251743Z 15017KT 25/21 A30 RMK A01 T02530211  RH  078%=      5-min Rain = 0
KCO2 251744Z 16014KT 25/21 A30 RMK A01 T02530212  RH  078%=      5-min Rain = 0
KCO2 251745Z 16013KT 25/21 A30 RMK A01 T02530213  RH  079%=      5-min Rain = 0
KCO2 251746Z 16010KT 25/22 A30 RMK A01 T02530215  RH  079%=      5-min Rain = 0
KCO2 251747Z 17014KT 26/21 A30 RMK A01 T02550214  RH  078%=      5-min Rain = 0
KCO2 251748Z 15015KT 26/21 A30 RMK A01 T02550213  RH  077%=      5-min Rain = 0
KCO2 251749Z 15016KT 25/21 A30 RMK A01 T02540212  RH  078%=      5-min Rain = 0
KCO2 251750Z 16014G20KT 25/21 A30 RMK A01 T02530212  RH  078%=      5-min Rain = 0
KCO2 251751Z 16016KT 25/21 A30 RMK A01 T02530212  RH  078%=      5-min Rain = 0
KCO2 251752Z 15016KT 25/21 A30 RMK A01 T02540213  RH  078%=      5-min Rain = 0
KCO2 251753Z 16014KT 26/21 A30 RMK A01 T02560214  RH  077%=      5-min Rain = 0
KCO2 251754Z 15015G20KT 26/21 A30 RMK A01 T02560213  RH  077%=      5-min Rain = 0
KCO2 251755Z 16016KT 26/21 A30 RMK A01 T02560213  RH  077%=      5-min Rain = 0
KCO2 251756Z 15012KT 26/21 A30 RMK A01 T02560214  RH  077%=      5-min Rain = 0
KCO2 251757Z 15013G19KT 26/22 A30 RMK A01 T02560216  RH  078%=      5-min Rain = 0
KCO2 251758Z 15017KT 26/21 A30 RMK A01 T02580213  RH  077%=      5-min Rain = 0
KCO2 251759Z 16015KT 26/21 A30 RMK A01 T02580214  RH  077%=      5-min Rain = 0
KCO2 251800Z 15015KT 26/21 A30 RMK A01 T02580214  RH  077%=      5-min Rain = 0
KCO2 251801Z 15013KT 26/22 A2999 RMK A01 T02580215  RH  077%=      5-min Rain = 0
KCO2 251802Z 15015KT 26/22 A2999 RMK A01 T02610218  RH  077%=      5-min Rain = 0
KCO2 251803Z 16015KT 26/22 A2999 RMK A01 T02640217  RH  075%=      5-min Rain = 0
KCO2 251804Z 15015G21KT 27/22 A2999 RMK A01 T02650217  RH  075%=      5-min Rain = 0
KCO2 251805Z 15017KT 27/21 A2999 RMK A01 T02650214  RH  074%=      5-min Rain = 0
KCO2 251806Z 15016KT 26/21 A2999 RMK A01 T02630214  RH  074%=      5-min Rain = 0
KCO2 251807Z 15015KT 26/22 A2999 RMK A01 T02620215  RH  075%=      5-min Rain = 0
KCO2 251808Z 15013KT 26/22 A2999 RMK A01 T02610216  RH  076%=      5-min Rain = 0
KCO2 251809Z 15014KT 26/22 A2999 RMK A01 T02610215  RH  076%=      5-min Rain = 0
KCO2 251810Z 15016KT 26/21 A2999 RMK A01 T02600214  RH  076%=      5-min Rain = 0
KCO2 251811Z 15013KT 26/21 A2999 RMK A01 T02590214  RH  076%=      5-min Rain = 0
KCO2 251812Z 15015KT 26/21 A2999 RMK A01 T02570214  RH  077%=      5-min Rain = 0
KCO2 251813Z 15014KT 26/21 A2999 RMK A01 T02570214  RH  077%=      5-min Rain = 0
KCO2 251814Z 15017KT 26/21 A2999 RMK A01 T02560214  RH  077%=      5-min Rain = 0
KCO2 251815Z 16016KT 26/21 A2999 RMK A01 T02560213  RH  077%=      5-min Rain = 0
KCO2 251816Z 16014KT 26/22 A2999 RMK A01 T02580215  RH  077%=      5-min Rain = 0
KCO2 251817Z 16017KT 26/22 A2999 RMK A01 T02600216  RH  076%=      5-min Rain = 0
KCO2 251818Z 16014KT 26/22 A2999 RMK A01 T02620217  RH  076%=      5-min Rain = 0
KCO2 251819Z 15016KT 26/22 A2999 RMK A01 T02640218  RH  076%=      5-min Rain = 0
KCO2 251820Z 15015KT 26/21 A2999 RMK A01 T02640214  RH  074%=      5-min Rain = 0
KCO2 251821Z 16015KT 26/21 A2999 RMK A01 T02620214  RH  075%=      5-min Rain = 0
KCO2 251822Z 15014KT 26/21 A2999 RMK A01 T02590214  RH  076%=      5-min Rain = 0
KCO2 251823Z 15014KT 26/21 A2999 RMK A01 T02590214  RH  076%=      5-min Rain = 0
KCO2 251824Z 15012KT 26/22 A2999 RMK A01 T02590215  RH  077%=      5-min Rain = 0
KCO2 251825Z 15017KT 26/21 A2999 RMK A01 T02600214  RH  076%=      5-min Rain = 0
KCO2 251826Z 15014KT 26/21 A2999 RMK A01 T02600213  RH  075%=      5-min Rain = 0
KCO2 251827Z 15017KT 26/21 A2999 RMK A01 T02610213  RH  075%=      5-min Rain = 0
KCO2 251828Z 15015KT 26/21 A2999 RMK A01 T02600212  RH  075%=      5-min Rain = 0
KCO2 251829Z 16014KT 26/21 A2999 RMK A01 T02610213  RH  075%=      5-min Rain = 0
KCO2 251830Z 16014KT 26/21 A2998 RMK A01 T02610213  RH  075%=      5-min Rain = 0
KCO2 251831Z 16014KT 26/21 A2998 RMK A01 T02610214  RH  075%=      5-min Rain = 0
KCO2 251832Z 17013KT 26/21 A2998 RMK A01 T02620214  RH  075%=      5-min Rain = 0
KCO2 251833Z 17013KT 26/22 A2998 RMK A01 T02630215  RH  075%=      5-min Rain = 0
KCO2 251834Z 17011G16KT 27/22 A2998 RMK A01 T02660219  RH  075%=      5-min Rain = 0
KCO2 251835Z 17013KT 27/22 A2998 RMK A01 T02710221  RH  074%=      5-min Rain = 0
KCO2 251836Z 15015KT 27/22 A2998 RMK A01 T02740218  RH  071%=      5-min Rain = 0
KCO2 251837Z 15019KT 27/22 A2998 RMK A01 T02730215  RH  070%=      5-min Rain = 0
KCO2 251838Z 16018KT 27/21 A2998 RMK A01 T02710213  RH  071%=      5-min Rain = 0
KCO2 251839Z 15016KT 27/21 A2998 RMK A01 T02690214  RH  072%=      5-min Rain = 0
KCO2 251840Z 15016KT 27/21 A2998 RMK A01 T02670212  RH  072%=      5-min Rain = 0
KCO2 251841Z 15015KT 27/21 A2998 RMK A01 T02670213  RH  072%=      5-min Rain = 0
KCO2 251842Z 14017KT 27/21 A2998 RMK A01 T02660212  RH  072%=      5-min Rain = 0
KCO2 251843Z 15015G20KT 27/21 A2997 RMK A01 T02670213  RH  072%=      5-min Rain = 0
KCO2 251844Z 15017KT 27/21 A2997 RMK A01 T02680212  RH  072%=      5-min Rain = 0
KCO2 251845Z 16016G21KT 27/21 A2997 RMK A01 T02690211  RH  071%=      5-min Rain = 0
KCO2 251846Z 17017G22KT 27/21 A2997 RMK A01 T02690211  RH  071%=      5-min Rain = 0
KCO2 251847Z 16015KT 27/21 A2997 RMK A01 T02700212  RH  071%=      5-min Rain = 0
KCO2 251848Z 17017KT 27/21 A2997 RMK A01 T02710213  RH  070%=      5-min Rain = 0
KCO2 251849Z 17017KT 27/21 A2997 RMK A01 T02720212  RH  070%=      5-min Rain = 0
KCO2 251850Z 16018G23KT 27/21 A2997 RMK A01 T02710211  RH  069%=      5-min Rain = 0
KCO2 251851Z 17016KT 27/21 A2997 RMK A01 T02690209  RH  070%=      5-min Rain = 0
KCO2 251852Z 17014KT 27/21 A2997 RMK A01 T02660209  RH  071%=      5-min Rain = 0
KCO2 251853Z 17013KT 27/21 A2997 RMK A01 T02650210  RH  072%=      5-min Rain = 0
KCO2 251854Z 17013KT 26/21 A2997 RMK A01 T02640211  RH  072%=      5-min Rain = 0
KCO2 251855Z 17013KT 26/21 A2997 RMK A01 T02640211  RH  073%=      5-min Rain = 0
KCO2 251856Z 17014KT 26/21 A2997 RMK A01 T02640211  RH  073%=      5-min Rain = 0
KCO2 251857Z 17014KT 26/21 A2997 RMK A01 T02640212  RH  073%=      5-min Rain = 0
KCO2 251858Z 18014KT 26/21 A2997 RMK A01 T02640212  RH  073%=      5-min Rain = 0
KCO2 251859Z 17015G20KT 27/21 A2997 RMK A01 T02650212  RH  073%=      5-min Rain = 0
KCO2 251900Z 16016KT 27/21 A2997 RMK A01 T02670211  RH  072%=      5-min Rain = 0
KCO2 251901Z 16015KT 27/21 A2997 RMK A01 T02690213  RH  071%=      5-min Rain = 0
KCO2 251902Z 15018KT 27/21 A2997 RMK A01 T02740213  RH  069%=      5-min Rain = 0
KCO2 251903Z 16016KT 28/21 A2997 RMK A01 T02770213  RH  068%=      5-min Rain = 0
KCO2 251904Z 17014KT 28/21 A2997 RMK A01 T02780214  RH  068%=      5-min Rain = 0
KCO2 251905Z 17015KT 28/21 A2996 RMK A01 T02770213  RH  068%=      5-min Rain = 0
KCO2 251906Z 16017KT 28/21 A2996 RMK A01 T02770213  RH  068%=      5-min Rain = 0
KCO2 251907Z 16017KT 28/21 A2996 RMK A01 T02760211  RH  068%=      5-min Rain = 0
KCO2 251908Z 16019KT 28/21 A2996 RMK A01 T02760211  RH  068%=      5-min Rain = 0
KCO2 251909Z 16017KT 28/21 A2996 RMK A01 T02760212  RH  068%=      5-min Rain = 0
KCO2 251910Z 15015KT 28/21 A2996 RMK A01 T02750213  RH  069%=      5-min Rain = 0
KCO2 251911Z 16014G19KT 28/21 A2996 RMK A01 T02750214  RH  069%=      5-min Rain = 0
KCO2 251912Z 15016KT 28/22 A2996 RMK A01 T02770215  RH  069%=      5-min Rain = 0
KCO2 251913Z 15017G23KT 28/21 A2996 RMK A01 T02790213  RH  067%=      5-min Rain = 0
KCO2 251914Z 16017KT 28/21 A2996 RMK A01 T02800214  RH  068%=      5-min Rain = 0
KCO2 251915Z 16016KT 28/22 A2996 RMK A01 T02800215  RH  068%=      5-min Rain = 0
KCO2 251916Z 16016KT 28/21 A2996 RMK A01 T02790213  RH  067%=      5-min Rain = 0
KCO2 251917Z 16016KT 28/21 A2996 RMK A01 T02780212  RH  067%=      5-min Rain = 0
KCO2 251918Z 16014KT 28/21 A2996 RMK A01 T02770213  RH  068%=      5-min Rain = 0
KCO2 251919Z 15013KT 28/22 A2996 RMK A01 T02760216  RH  070%=      5-min Rain = 0
KCO2 251920Z 15016KT 28/22 A2996 RMK A01 T02760215  RH  069%=      5-min Rain = 0
KCO2 251921Z 15017KT 28/21 A2996 RMK A01 T02770214  RH  068%=      5-min Rain = 0
KCO2 251922Z 15017KT 28/21 A2996 RMK A01 T02780213  RH  068%=      5-min Rain = 0
KCO2 251923Z 17018KT 28/21 A2996 RMK A01 T02780213  RH  068%=      5-min Rain = 0
KCO2 251924Z 17017KT 28/21 A2996 RMK A01 T02780213  RH  068%=      5-min Rain = 0
KCO2 251925Z 16014KT 28/21 A2996 RMK A01 T02760213  RH  068%=      5-min Rain = 0
KCO2 251926Z 17015KT 28/22 A2996 RMK A01 T02760215  RH  069%=      5-min Rain = 0
KCO2 251927Z 16014KT 28/22 A2996 RMK A01 T02760216  RH  070%=      5-min Rain = 0
KCO2 251928Z 16015KT 28/22 A2995 RMK A01 T02760215  RH  069%=      5-min Rain = 0
KCO2 251929Z 16014KT 28/22 A2995 RMK A01 T02770215  RH  069%=      5-min Rain = 0
KCO2 251930Z 15012KT 28/22 A2995 RMK A01 T02770215  RH  069%=      5-min Rain = 0
KCO2 251931Z 15011KT 28/22 A2995 RMK A01 T02780218  RH  070%=      5-min Rain = 0
KCO2 251932Z 17018KT 28/22 A2995 RMK A01 T02780215  RH  068%=      5-min Rain = 0
KCO2 251933Z 17014G19KT 28/21 A2995 RMK A01 T02780212  RH  068%=      5-min Rain = 0
KCO2 251934Z 16015KT 28/21 A2995 RMK A01 T02760213  RH  068%=      5-min Rain = 0
KCO2 251935Z 15014KT 28/21 A2995 RMK A01 T02760213  RH  069%=      5-min Rain = 0
KCO2 251936Z 16018KT 28/21 A2995 RMK A01 T02750211  RH  068%=      5-min Rain = 0
KCO2 251937Z 15015KT 27/21 A2995 RMK A01 T02740210  RH  068%=      5-min Rain = 0
KCO2 251938Z 16015G20KT 28/21 A2995 RMK A01 T02750211  RH  068%=      5-min Rain = 0
KCO2 251939Z 16016KT 28/21 A2995 RMK A01 T02750212  RH  068%=      5-min Rain = 0
KCO2 251940Z 16015KT 28/21 A2995 RMK A01 T02760213  RH  068%=      5-min Rain = 0
KCO2 251941Z 16016KT 28/22 A2995 RMK A01 T02770215  RH  069%=      5-min Rain = 0
KCO2 251942Z 15018KT 28/21 A2995 RMK A01 T02770211  RH  067%=      5-min Rain = 0
KCO2 251943Z 15017KT 28/21 A2995 RMK A01 T02770211  RH  067%=      5-min Rain = 0
KCO2 251944Z 14017KT 28/21 A2995 RMK A01 T02770211  RH  067%=      5-min Rain = 0
KCO2 251945Z 16014KT 28/21 A2995 RMK A01 T02770212  RH  068%=      5-min Rain = 0
KCO2 251946Z 16016KT 28/21 A2995 RMK A01 T02770213  RH  068%=      5-min Rain = 0
KCO2 251947Z 16017KT 28/21 A2995 RMK A01 T02780212  RH  067%=      5-min Rain = 0
KCO2 251948Z 16015KT 28/21 A2995 RMK A01 T02780211  RH  067%=      5-min Rain = 0
KCO2 251949Z 16016G21KT 28/21 A2995 RMK A01 T02780211  RH  067%=      5-min Rain = 0
KCO2 251950Z 16018KT 28/21 A2995 RMK A01 T02780210  RH  067%=      5-min Rain = 0
KCO2 251951Z 16014KT 28/21 A2995 RMK A01 T02770210  RH  067%=      5-min Rain = 0
KCO2 251952Z 16012KT 28/21 A2995 RMK A01 T02760212  RH  068%=      5-min Rain = 0
KCO2 251953Z 17010G16KT 28/21 A2995 RMK A01 T02770214  RH  069%=      5-min Rain = 0
KCO2 251954Z 17016KT 28/21 A2994 RMK A01 T02760211  RH  068%=      5-min Rain = 0
KCO2 251955Z 17012KT 28/21 A2994 RMK A01 T02760211  RH  068%=      5-min Rain = 0
KCO2 251956Z 16011KT 28/21 A2994 RMK A01 T02760214  RH  069%=      5-min Rain = 0
KCO2 251957Z 16014G19KT 28/21 A2994 RMK A01 T02770214  RH  069%=      5-min Rain = 0
KCO2 251958Z 15016KT 28/21 A2994 RMK A01 T02780213  RH  068%=      5-min Rain = 0
KCO2 251959Z 15018G23KT 28/21 A2994 RMK A01 T02780211  RH  067%=      5-min Rain = 0
KCO2 252000Z 15016G21KT 28/21 A2994 RMK A01 T02780210  RH  066%=      5-min Rain = 0
KCO2 252001Z 15016KT 28/21 A2994 RMK A01 T02790211  RH  067%=      5-min Rain = 0
KCO2 252002Z 16017KT 28/21 A2994 RMK A01 T02790210  RH  066%=      5-min Rain = 0
KCO2 252003Z 16015KT 28/21 A2994 RMK A01 T02790210  RH  066%=      5-min Rain = 0
KCO2 252004Z 16013KT 28/21 A2994 RMK A01 T02780211  RH  067%=      5-min Rain = 0
KCO2 252005Z 15013KT 28/21 A2995 RMK A01 T02780211  RH  067%=      5-min Rain = 0
KCO2 252006Z 15013KT 28/21 A2995 RMK A01 T02770211  RH  067%=      5-min Rain = 0
KCO2 252007Z 16013KT 28/21 A2994 RMK A01 T02760210  RH  067%=      5-min Rain = 0
KCO2 252008Z 16014KT 28/21 A2994 RMK A01 T02750210  RH  067%=      5-min Rain = 0
KCO2 252009Z 16012KT 28/21 A2994 RMK A01 T02750210  RH  068%=      5-min Rain = 0
KCO2 252010Z 16012KT 28/21 A2994 RMK A01 T02750210  RH  068%=      5-min Rain = 0
KCO2 252011Z 16015KT 28/21 A2994 RMK A01 T02750209  RH  067%=      5-min Rain = 0
KCO2 252012Z 16013KT 28/21 A2994 RMK A01 T02760209  RH  067%=      5-min Rain = 0
KCO2 252013Z 16014KT 28/21 A2994 RMK A01 T02780209  RH  066%=      5-min Rain = 0
KCO2 252014Z 16013KT 28/21 A2994 RMK A01 T02780210  RH  066%=      5-min Rain = 0
KCO2 252015Z 16012KT 28/21 A2994 RMK A01 T02790211  RH  067%=      5-min Rain = 0
KCO2 252016Z 16013KT 28/21 A2994 RMK A01 T02790212  RH  067%=      5-min Rain = 0
KCO2 252017Z 16013KT 28/21 A2994 RMK A01 T02790211  RH  067%=      5-min Rain = 0
KCO2 252018Z 16012G17KT 28/21 A2994 RMK A01 T02790211  RH  066%=      5-min Rain = 0
KCO2 252019Z 16014KT 28/21 A2994 RMK A01 T02790211  RH  066%=      5-min Rain = 0
KCO2 252020Z 16012KT 28/21 A2994 RMK A01 T02800211  RH  066%=      5-min Rain = 0
KCO2 252021Z 17010KT 28/21 A2994 RMK A01 T02810214  RH  067%=      5-min Rain = 0
KCO2 252022Z 17011KT 28/22 A2994 RMK A01 T02820216  RH  067%=      5-min Rain = 0
KCO2 252023Z 17013KT 28/21 A2994 RMK A01 T02820212  RH  066%=      5-min Rain = 0
KCO2 252024Z 17009KT 28/21 A2994 RMK A01 T02830213  RH  066%=      5-min Rain = 0
KCO2 252025Z 17010KT 28/21 A2994 RMK A01 T02820214  RH  066%=      5-min Rain = 0
KCO2 252026Z 17012KT 28/21 A2994 RMK A01 T02820212  RH  066%=      5-min Rain = 0
KCO2 252027Z 17011KT 28/21 A2994 RMK A01 T02830213  RH  066%=      5-min Rain = 0
KCO2 252028Z 16015KT 28/21 A2994 RMK A01 T02820209  RH  064%=      5-min Rain = 0
KCO2 252029Z 17013KT 28/21 A2994 RMK A01 T02820207  RH  064%=      5-min Rain = 0
KCO2 252030Z 16013KT 28/21 A2994 RMK A01 T02820209  RH  065%=      5-min Rain = 0
KCO2 252031Z 16015KT 28/21 A2994 RMK A01 T02810208  RH  064%=      5-min Rain = 0
KCO2 252032Z 17014KT 28/21 A2994 RMK A01 T02810206  RH  064%=      5-min Rain = 0
KCO2 252033Z 17013KT 28/21 A2994 RMK A01 T02800207  RH  064%=      5-min Rain = 0
KCO2 252034Z 17013KT 28/21 A2994 RMK A01 T02800207  RH  065%=      5-min Rain = 0
KCO2 252035Z 17017KT 28/21 A2994 RMK A01 T02800207  RH  065%=      5-min Rain = 0
KCO2 252036Z 17017KT 28/21 A2994 RMK A01 T02800206  RH  064%=      5-min Rain = 0
KCO2 252037Z 17015KT 28/21 A2994 RMK A01 T02800206  RH  064%=      5-min Rain = 0
KCO2 252038Z 17012G17KT 28/21 A2994 RMK A01 T02790208  RH  065%=      5-min Rain = 0
KCO2 252039Z 16012KT 28/21 A2994 RMK A01 T02790208  RH  065%=      5-min Rain = 0
KCO2 252040Z 17013KT 28/21 A2994 RMK A01 T02780207  RH  065%=      5-min Rain = 0
KCO2 252041Z 17012KT 28/21 A2994 RMK A01 T02780208  RH  066%=      5-min Rain = 0
KCO2 252042Z 16015KT 28/21 A2994 RMK A01 T02770207  RH  066%=      5-min Rain = 0
KCO2 252043Z 16013KT 28/21 A2994 RMK A01 T02770207  RH  066%=      5-min Rain = 0
KCO2 252044Z 16015KT 28/21 A2994 RMK A01 T02770207  RH  065%=      5-min Rain = 0
KCO2 252045Z 17014KT 28/21 A2994 RMK A01 T02760205  RH  065%=      5-min Rain = 0
KCO2 252046Z 17013KT 28/21 A2994 RMK A01 T02760205  RH  065%=      5-min Rain = 0
KCO2 252047Z 17013KT 28/21 A2994 RMK A01 T02760206  RH  066%=      5-min Rain = 0
KCO2 252048Z 17012KT 28/21 A2994 RMK A01 T02760207  RH  066%=      5-min Rain = 0
KCO2 252049Z 17011KT 28/21 A2994 RMK A01 T02760208  RH  067%=      5-min Rain = 0
KCO2 252050Z 17012KT 28/21 A2994 RMK A01 T02760207  RH  066%=      5-min Rain = 0
KCO2 252051Z 17010KT 28/21 A2994 RMK A01 T02760207  RH  066%=      5-min Rain = 0
KCO2 252052Z 17010KT 28/21 A2994 RMK A01 T02760209  RH  067%=      5-min Rain = 0
KCO2 252053Z 16013KT 28/21 A2994 RMK A01 T02760206  RH  066%=      5-min Rain = 0
KCO2 252054Z 17013KT 28/21 A2994 RMK A01 T02760206  RH  065%=      5-min Rain = 0
KCO2 252055Z 16012G17KT 28/20 A2993 RMK A01 T02760204  RH  065%=      5-min Rain = 0
KCO2 252056Z 17013KT 28/20 A2993 RMK A01 T02770204  RH  065%=      5-min Rain = 0
KCO2 252057Z 17015KT 28/20 A2993 RMK A01 T02770203  RH  064%=      5-min Rain = 0
KCO2 252058Z 17013KT 28/20 A2993 RMK A01 T02760202  RH  064%=      5-min Rain = 0
KCO2 252059Z 16013KT 28/20 A2993 RMK A01 T02760204  RH  064%=      5-min Rain = 0
KCO2 252100Z 17015KT 28/20 A2993 RMK A01 T02760202  RH  064%=      5-min Rain = 0
KCO2 252101Z 17014KT 28/20 A2993 RMK A01 T02760201  RH  063%=      5-min Rain = 0
KCO2 252102Z 16012KT 28/20 A2993 RMK A01 T02760202  RH  064%=      5-min Rain = 0
KCO2 252103Z 17011KT 28/20 A2993 RMK A01 T02760204  RH  065%=      5-min Rain = 0
KCO2 252104Z 17011KT 28/20 A2993 RMK A01 T02750204  RH  065%=      5-min Rain = 0
KCO2 252105Z 16013KT 27/21 A2993 RMK A01 T02740205  RH  066%=      5-min Rain = 0
KCO2 252106Z 16013KT 27/20 A2993 RMK A01 T02740203  RH  065%=      5-min Rain = 0
KCO2 252107Z 16014G19KT 27/20 A2993 RMK A01 T02740204  RH  065%=      5-min Rain = 0
KCO2 252108Z 16014KT 28/20 A2993 RMK A01 T02750202  RH  064%=      5-min Rain = 0
KCO2 252109Z 16014KT 28/20 A2993 RMK A01 T02750201  RH  064%=      5-min Rain = 0
KCO2 252110Z 17014KT 28/20 A2993 RMK A01 T02750202  RH  064%=      5-min Rain = 0
KCO2 252111Z 17014KT 28/20 A2993 RMK A01 T02750201  RH  064%=      5-min Rain = 0
KCO2 252112Z 17017KT 28/20 A2993 RMK A01 T02750200  RH  064%=      5-min Rain = 0
KCO2 252113Z 17013KT 28/20 A2993 RMK A01 T02750200  RH  064%=      5-min Rain = 0
KCO2 252114Z 17014KT 27/20 A2993 RMK A01 T02740202  RH  065%=      5-min Rain = 0
KCO2 252115Z 17014KT 27/20 A2993 RMK A01 T02740201  RH  065%=      5-min Rain = 0
KCO2 252116Z 17015KT 27/20 A2993 RMK A01 T02740201  RH  064%=      5-min Rain = 0
KCO2 252117Z 17013KT 27/20 A2993 RMK A01 T02740201  RH  065%=      5-min Rain = 0
KCO2 252118Z 17011KT 27/20 A2993 RMK A01 T02740201  RH  065%=      5-min Rain = 0
KCO2 252119Z 17012KT 27/20 A2993 RMK A01 T02740203  RH  065%=      5-min Rain = 0
KCO2 252120Z 17011KT 27/20 A2993 RMK A01 T02740204  RH  066%=      5-min Rain = 0
KCO2 252121Z 17009KT 27/21 A2993 RMK A01 T02740205  RH  066%=      5-min Rain = 0
KCO2 252122Z 17010KT 27/21 A2993 RMK A01 T02740206  RH  067%=      5-min Rain = 0
KCO2 252123Z 17010KT 27/21 A2993 RMK A01 T02740206  RH  066%=      5-min Rain = 0
KCO2 252124Z 17009KT 27/21 A2993 RMK A01 T02740206  RH  067%=      5-min Rain = 0
KCO2 252125Z 18012KT 27/21 A2993 RMK A01 T02740206  RH  066%=      5-min Rain = 0
KCO2 252126Z 17010KT 28/21 A2994 RMK A01 T02750205  RH  066%=      5-min Rain = 0
KCO2 252127Z 17013KT 28/20 A2994 RMK A01 T02750204  RH  065%=      5-min Rain = 0
KCO2 252128Z 16014KT 28/20 A2993 RMK A01 T02760203  RH  064%=      5-min Rain = 0
KCO2 252129Z 17011KT 28/20 A2994 RMK A01 T02770202  RH  064%=      5-min Rain = 0
KCO2 252130Z 17009KT 28/21 A2994 RMK A01 T02780206  RH  065%=      5-min Rain = 0
KCO2 252131Z 17010KT 28/21 A2994 RMK A01 T02780207  RH  065%=      5-min Rain = 0
KCO2 252132Z 17010KT 28/21 A2994 RMK A01 T02790207  RH  065%=      5-min Rain = 0
KCO2 252133Z 17010KT 28/21 A2994 RMK A01 T02800206  RH  064%=      5-min Rain = 0
KCO2 252134Z 17011KT 28/21 A2994 RMK A01 T02800206  RH  064%=      5-min Rain = 0
KCO2 252135Z 17011KT 28/21 A2994 RMK A01 T02800206  RH  064%=      5-min Rain = 0
KCO2 252136Z 16010KT 28/20 A2994 RMK A01 T02810204  RH  063%=      5-min Rain = 0
KCO2 252137Z 17011KT 28/21 A2994 RMK A01 T02810206  RH  064%=      5-min Rain = 0
KCO2 252138Z 17009KT 28/21 A2994 RMK A01 T02810206  RH  064%=      5-min Rain = 0
KCO2 252139Z 17012KT 28/21 A2994 RMK A01 T02810205  RH  064%=      5-min Rain = 0
KCO2 252140Z 17013KT 28/20 A2994 RMK A01 T02810203  RH  063%=      5-min Rain = 0
KCO2 252141Z 16014KT 28/20 A2994 RMK A01 T02810203  RH  063%=      5-min Rain = 0
KCO2 252142Z 18012KT 28/20 A2994 RMK A01 T02810204  RH  063%=      5-min Rain = 0
KCO2 252143Z 17011KT 28/20 A2994 RMK A01 T02810204  RH  063%=      5-min Rain = 0
KCO2 252144Z 17012KT 28/21 A2995 RMK A01 T02810205  RH  064%=      5-min Rain = 0
KCO2 252145Z 17011KT 28/20 A2995 RMK A01 T02810204  RH  063%=      5-min Rain = 0
KCO2 252146Z 18011KT 28/21 A2995 RMK A01 T02800206  RH  064%=      5-min Rain = 0
KCO2 252147Z 17010KT 28/21 A2995 RMK A01 T02800206  RH  064%=      5-min Rain = 0
KCO2 252148Z 17011KT 28/21 A2995 RMK A01 T02790207  RH  065%=      5-min Rain = 0
KCO2 252149Z 18012KT 28/21 A2995 RMK A01 T02780205  RH  064%=      5-min Rain = 0
KCO2 252150Z 18011KT 28/20 A2995 RMK A01 T02780204  RH  064%=      5-min Rain = 0
KCO2 252151Z 18012KT 28/20 A2995 RMK A01 T02770203  RH  064%=      5-min Rain = 0
KCO2 252152Z 18013KT 28/20 A2995 RMK A01 T02760203  RH  064%=      5-min Rain = 0
KCO2 252153Z 18010KT 28/20 A2995 RMK A01 T02750202  RH  064%=      5-min Rain = 0
KCO2 252154Z 18011KT 27/20 A2995 RMK A01 T02740204  RH  065%=      5-min Rain = 0
KCO2 252155Z 17011KT 27/20 A2995 RMK A01 T02740204  RH  065%=      5-min Rain = 0
KCO2 252156Z 17011KT 27/20 A2994 RMK A01 T02740203  RH  065%=      5-min Rain = 0
KCO2 252157Z 17010KT 27/20 A2994 RMK A01 T02740203  RH  065%=      5-min Rain = 0
KCO2 252158Z 16011KT 27/20 A2993 RMK A01 T02740203  RH  065%=      5-min Rain = 0
KCO2 252159Z 16011KT 28/20 A2994 RMK A01 T02750201  RH  064%=      5-min Rain = 0
KCO2 252200Z 16010KT 28/20 A2994 RMK A01 T02760203  RH  065%=      5-min Rain = 0
KCO2 252201Z 16010KT 28/20 A2994 RMK A01 T02760204  RH  065%=      5-min Rain = 0
KCO2 252202Z 16009KT 28/21 A2994 RMK A01 T02760205  RH  065%=      5-min Rain = 0
KCO2 252203Z 16009KT 28/21 A2994 RMK A01 T02770205  RH  065%=      5-min Rain = 0
KCO2 252204Z 17009KT 28/21 A2994 RMK A01 T02770207  RH  065%=      5-min Rain = 0
KCO2 252205Z 17009KT 28/21 A2994 RMK A01 T02770206  RH  065%=      5-min Rain = 0
KCO2 252206Z 17009KT 28/21 A2994 RMK A01 T02770206  RH  065%=      5-min Rain = 0
KCO2 252207Z 16009KT 28/21 A2994 RMK A01 T02770206  RH  065%=      5-min Rain = 0
KCO2 252208Z 16010KT 28/21 A2994 RMK A01 T02770207  RH  066%=      5-min Rain = 0
KCO2 252209Z 17009KT 28/21 A2993 RMK A01 T02760206  RH  066%=      5-min Rain = 0
KCO2 252210Z 17010KT 28/21 A2993 RMK A01 T02760205  RH  065%=      5-min Rain = 0
KCO2 252211Z 17010KT 28/21 A2993 RMK A01 T02750206  RH  066%=      5-min Rain = 0
KCO2 252212Z 17010KT 28/21 A2993 RMK A01 T02750207  RH  066%=      5-min Rain = 0
KCO2 252213Z 17010KT 27/21 A2993 RMK A01 T02740206  RH  066%=      5-min Rain = 0
KCO2 252214Z 17010KT 27/21 A2993 RMK A01 T02740205  RH  066%=      5-min Rain = 0
KCO2 252215Z 17010KT 27/21 A2993 RMK A01 T02740205  RH  066%=      5-min Rain = 0
KCO2 252216Z 16010KT 27/21 A2993 RMK A01 T02740206  RH  066%=      5-min Rain = 0
KCO2 252217Z 17010KT 27/21 A2993 RMK A01 T02730206  RH  067%=      5-min Rain = 0
KCO2 252218Z 17011KT 27/21 A2993 RMK A01 T02730205  RH  066%=      5-min Rain = 0
KCO2 252219Z 17009KT 27/21 A2993 RMK A01 T02740207  RH  067%=      5-min Rain = 0
KCO2 252220Z 17011KT 27/21 A2993 RMK A01 T02730207  RH  067%=      5-min Rain = 0
KCO2 252221Z 17009KT 27/21 A2993 RMK A01 T02730206  RH  067%=      5-min Rain = 0
KCO2 252222Z 17009KT 27/21 A2993 RMK A01 T02730207  RH  067%=      5-min Rain = 0
KCO2 252223Z 17010KT 27/21 A2994 RMK A01 T02730206  RH  067%=      5-min Rain = 0
KCO2 252224Z 17010KT 27/21 A2994 RMK A01 T02730207  RH  067%=      5-min Rain = 0
KCO2 252225Z 17011KT 27/20 A2994 RMK A01 T02730204  RH  066%=      5-min Rain = 0
KCO2 252226Z 17009KT 27/20 A2994 RMK A01 T02730204  RH  066%=      5-min Rain = 0
KCO2 252227Z 17010KT 27/21 A2994 RMK A01 T02730206  RH  067%=      5-min Rain = 0
KCO2 252228Z 17010KT 27/21 A2994 RMK A01 T02720206  RH  067%=      5-min Rain = 0
KCO2 252229Z 17010KT 27/21 A2994 RMK A01 T02720205  RH  067%=      5-min Rain = 0
KCO2 252230Z 17011KT 27/20 A2994 RMK A01 T02720203  RH  066%=      5-min Rain = 0
KCO2 252231Z 17010KT 27/20 A2994 RMK A01 T02710203  RH  066%=      5-min Rain = 0
KCO2 252232Z 17010KT 27/20 A2994 RMK A01 T02710204  RH  067%=      5-min Rain = 0
KCO2 252233Z 17009KT 27/20 A2994 RMK A01 T02710204  RH  067%=      5-min Rain = 0
KCO2 252234Z 17008KT 27/21 A2994 RMK A01 T02710206  RH  068%=      5-min Rain = 0
KCO2 252235Z 17008KT 27/21 A2994 RMK A01 T02710206  RH  068%=      5-min Rain = 0
KCO2 252236Z 17010KT 27/21 A2994 RMK A01 T02700205  RH  068%=      5-min Rain = 0
KCO2 252237Z 18010KT 27/20 A2994 RMK A01 T02700204  RH  067%=      5-min Rain = 0
KCO2 252238Z 17010KT 27/20 A2994 RMK A01 T02700203  RH  067%=      5-min Rain = 0
KCO2 252239Z 17010KT 27/20 A2994 RMK A01 T02700203  RH  067%=      5-min Rain = 0
KCO2 252240Z 17010KT 27/20 A2994 RMK A01 T02700204  RH  067%=      5-min Rain = 0
KCO2 252241Z 17011KT 27/20 A2994 RMK A01 T02700204  RH  067%=      5-min Rain = 0
KCO2 252242Z 17010KT 27/20 A2994 RMK A01 T02700203  RH  067%=      5-min Rain = 0
KCO2 252243Z 17009KT 27/20 A2994 RMK A01 T02700203  RH  067%=      5-min Rain = 0
KCO2 252244Z 17009KT 27/20 A2994 RMK A01 T02710203  RH  067%=      5-min Rain = 0
KCO2 252245Z 17009KT 27/21 A2994 RMK A01 T02710205  RH  067%=      5-min Rain = 0
KCO2 252246Z 17009G14KT 27/21 A2993 RMK A01 T02710206  RH  067%=      5-min Rain = 0
KCO2 252247Z 16009KT 27/20 A2993 RMK A01 T02720204  RH  067%=      5-min Rain = 0
KCO2 252248Z 16010KT 27/21 A2993 RMK A01 T02720205  RH  067%=      5-min Rain = 0
KCO2 252249Z 16012KT 27/21 A2993 RMK A01 T02730205  RH  067%=      5-min Rain = 0
KCO2 252250Z 16011KT 27/20 A2993 RMK A01 T02730204  RH  066%=      5-min Rain = 0
KCO2 252251Z 16008KT 27/21 A2993 RMK A01 T02730206  RH  067%=      5-min Rain = 0
KCO2 252252Z 16010KT 27/21 A2992 RMK A01 T02730206  RH  067%=      5-min Rain = 0
KCO2 252253Z 16010KT 27/21 A2992 RMK A01 T02740205  RH  066%=      5-min Rain = 0
KCO2 252254Z 16009KT 27/21 A2992 RMK A01 T02740206  RH  066%=      5-min Rain = 0
KCO2 252255Z 16008KT 27/21 A2992 RMK A01 T02740208  RH  067%=      5-min Rain = 0
KCO2 252256Z 16009KT 27/21 A2992 RMK A01 T02730209  RH  068%=      5-min Rain = 0
KCO2 252257Z 16010KT 27/21 A2992 RMK A01 T02730206  RH  067%=      5-min Rain = 0
KCO2 252258Z 16009KT 27/21 A2992 RMK A01 T02730207  RH  067%=      5-min Rain = 0
KCO2 252259Z 16011KT 27/21 A2992 RMK A01 T02720208  RH  068%=      5-min Rain = 0
KCO2 252300Z 16011KT 27/21 A2992 RMK A01 T02720206  RH  067%=      5-min Rain = 0
KCO2 252301Z 16010KT 27/21 A2992 RMK A01 T02710206  RH  068%=      5-min Rain = 0
KCO2 252302Z 15012KT 27/21 A2991 RMK A01 T02710207  RH  068%=      5-min Rain = 0
KCO2 252303Z 15013KT 27/21 A2991 RMK A01 T02710205  RH  067%=      5-min Rain = 0
KCO2 252304Z 15012KT 27/21 A2991 RMK A01 T02700205  RH  067%=      5-min Rain = 0
KCO2 252305Z 15013KT 27/21 A2991 RMK A01 T02700205  RH  068%=      5-min Rain = 0
KCO2 252306Z 15013KT 27/21 A2991 RMK A01 T02700205  RH  068%=      5-min Rain = 0
KCO2 252307Z 15013KT 27/21 A2991 RMK A01 T02700205  RH  068%=      5-min Rain = 0
KCO2 252308Z 16012KT 27/21 A2991 RMK A01 T02700206  RH  068%=      5-min Rain = 0
KCO2 252309Z 16013KT 27/21 A2991 RMK A01 T02700206  RH  068%=      5-min Rain = 0
KCO2 252310Z 16011KT 27/21 A2991 RMK A01 T02700207  RH  068%=      5-min Rain = 0
KCO2 252311Z 16012KT 27/21 A2991 RMK A01 T02700207  RH  069%=      5-min Rain = 0
KCO2 252312Z 16012KT 27/21 A2991 RMK A01 T02700206  RH  068%=      5-min Rain = 0
KCO2 252313Z 16014KT 27/21 A2991 RMK A01 T02710205  RH  067%=      5-min Rain = 0
KCO2 252314Z 16012KT 27/21 A2991 RMK A01 T02710205  RH  067%=      5-min Rain = 0
KCO2 252315Z 16011KT 27/21 A2991 RMK A01 T02710207  RH  068%=      5-min Rain = 0
KCO2 252316Z 16012KT 27/21 A2991 RMK A01 T02710207  RH  068%=      5-min Rain = 0
KCO2 252317Z 16012KT 27/21 A2991 RMK A01 T02710207  RH  068%=      5-min Rain = 0
KCO2 252318Z 16013KT 27/21 A2991 RMK A01 T02710207  RH  068%=      5-min Rain = 0
KCO2 252319Z 16013KT 27/21 A2991 RMK A01 T02710207  RH  068%=      5-min Rain = 0
KCO2 252320Z 16014KT 27/21 A2991 RMK A01 T02710206  RH  067%=      5-min Rain = 0
KCO2 252321Z 15014KT 27/21 A299 RMK A01 T02710206  RH  068%=      5-min Rain = 0
KCO2 252322Z 16013KT 27/21 A299 RMK A01 T02720206  RH  067%=      5-min Rain = 0
KCO2 252323Z 15014KT 27/21 A299 RMK A01 T02710207  RH  068%=      5-min Rain = 0
KCO2 252324Z 15013KT 27/21 A2989 RMK A01 T02710207  RH  068%=      5-min Rain = 0
KCO2 252325Z 15014KT 27/21 A2989 RMK A01 T02710206  RH  068%=      5-min Rain = 0
KCO2 252326Z 15012KT 27/20 A2989 RMK A01 T02700204  RH  067%=      5-min Rain = 0
KCO2 252327Z 15014KT 27/21 A2989 RMK A01 T02690205  RH  068%=      5-min Rain = 0
KCO2 252328Z 16014G19KT 27/20 A2989 RMK A01 T02690204  RH  067%=      5-min Rain = 0
KCO2 252329Z 15011KT 27/20 A299 RMK A01 T02690204  RH  067%=      5-min Rain = 0
KCO2 252330Z 16012KT 27/21 A299 RMK A01 T02690205  RH  068%=      5-min Rain = 0
KCO2 252331Z 16013KT 27/20 A299 RMK A01 T02680203  RH  067%=      5-min Rain = 0
KCO2 252332Z 15014KT 27/20 A299 RMK A01 T02680202  RH  067%=      5-min Rain = 0
KCO2 252333Z 16011KT 27/20 A299 RMK A01 T02690203  RH  067%=      5-min Rain = 0
KCO2 252334Z 15013KT 27/21 A299 RMK A01 T02690205  RH  068%=      5-min Rain = 0
KCO2 252335Z 15013KT 27/20 A299 RMK A01 T02690203  RH  067%=      5-min Rain = 0
KCO2 252336Z 15012KT 27/20 A299 RMK A01 T02700204  RH  067%=      5-min Rain = 0
KCO2 252337Z 15012KT 27/21 A299 RMK A01 T02710205  RH  067%=      5-min Rain = 0
KCO2 252338Z 15011G16KT 27/21 A299 RMK A01 T02730206  RH  067%=      5-min Rain = 0
KCO2 252339Z 15011KT 27/21 A2989 RMK A01 T02740206  RH  066%=      5-min Rain = 0
KCO2 252340Z 15013KT 28/21 A2989 RMK A01 T02760208  RH  066%=      5-min Rain = 0
KCO2 252341Z 15010KT 28/21 A2989 RMK A01 T02770207  RH  066%=      5-min Rain = 0
KCO2 252342Z 15011KT 28/21 A2989 RMK A01 T02780207  RH  065%=      5-min Rain = 0
KCO2 252343Z 14012KT 28/21 A2989 RMK A01 T02790207  RH  065%=      5-min Rain = 0
KCO2 252344Z 15014KT 28/21 A2989 RMK A01 T02800206  RH  064%=      5-min Rain = 0
KCO2 252345Z 15015KT 28/21 A2989 RMK A01 T02800205  RH  064%=      5-min Rain = 0
KCO2 252346Z 15014KT 28/20 A2989 RMK A01 T02800204  RH  064%=      5-min Rain = 0
KCO2 252347Z 15012KT 28/21 A2989 RMK A01 T02800205  RH  064%=      5-min Rain = 0
KCO2 252348Z 15012KT 28/21 A2988 RMK A01 T02800205  RH  063%=      5-min Rain = 0
KCO2 252349Z 14015KT 28/21 A2988 RMK A01 T02810207  RH  064%=      5-min Rain = 0
KCO2 252350Z 15015G22KT 28/21 A2988 RMK A01 T02810206  RH  063%=      5-min Rain = 0
KCO2 252351Z 15015KT 28/20 A2988 RMK A01 T02810204  RH  063%=      5-min Rain = 0
KCO2 252352Z 16014KT 28/21 A2988 RMK A01 T02810205  RH  063%=      5-min Rain = 0
KCO2 252353Z 15014KT 28/21 A2988 RMK A01 T02810205  RH  064%=      5-min Rain = 0
KCO2 252354Z 15013KT 28/20 A2988 RMK A01 T02800204  RH  063%=      5-min Rain = 0
KCO2 252355Z 15017KT 28/20 A2988 RMK A01 T02800204  RH  063%=      5-min Rain = 0
KCO2 252356Z 16018KT 28/20 A2988 RMK A01 T02790203  RH  063%=      5-min Rain = 0
KCO2 252357Z 15015KT 28/20 A2988 RMK A01 T02780201  RH  063%=      5-min Rain = 0
KCO2 252358Z 15013KT 28/20 A2988 RMK A01 T02780202  RH  063%=      5-min Rain = 0
KCO2 252359Z 15014KT 28/20 A2988 RMK A01 T02780203  RH  063%=      5-min Rain = 0
KCO2 260000Z 15013KT 28/20 A2988 RMK A01 T02780203  RH  064%=      5-min Rain = 0
KCO2 260001Z 15013KT 28/20 A2988 RMK A01 T02780203  RH  064%=      5-min Rain = 0
KCO2 260002Z 14015KT 28/20 A2988 RMK A01 T02780202  RH  063%=      5-min Rain = 0
KCO2 260003Z 14015KT 28/20 A2988 RMK A01 T02780201  RH  063%=      5-min Rain = 0
KCO2 260004Z 14015KT 28/20 A2988 RMK A01 T02780201  RH  063%=      5-min Rain = 0
KCO2 260005Z 15016KT 28/20 A2989 RMK A01 T02780201  RH  063%=      5-min Rain = 0
KCO2 260006Z 16016KT 28/20 A2989 RMK A01 T02790201  RH  063%=      5-min Rain = 0
KCO2 260007Z 16016G21KT 28/20 A299 RMK A01 T02780200  RH  062%=      5-min Rain = 0
KCO2 260008Z 16017G23KT 28/20 A299 RMK A01 T02790199  RH  062%=      5-min Rain = 0
KCO2 260009Z 15016KT 28/20 A2989 RMK A01 T02790201  RH  062%=      5-min Rain = 0
KCO2 260010Z 15016KT 28/20 A2989 RMK A01 T02790201  RH  062%=      5-min Rain = 0
KCO2 260011Z 14018KT 28/20 A2989 RMK A01 T02800200  RH  062%=      5-min Rain = 0
KCO2 260012Z 15014KT 28/20 A2989 RMK A01 T02790201  RH  063%=      5-min Rain = 0
KCO2 260013Z 15015KT 28/20 A2989 RMK A01 T02780202  RH  063%=      5-min Rain = 0
KCO2 260014Z 15012KT 28/20 A2989 RMK A01 T02780203  RH  064%=      5-min Rain = 0
KCO2 260015Z 15014G19KT 28/20 A2989 RMK A01 T02770202  RH  064%=      5-min Rain = 0
KCO2 260016Z 15017KT 28/20 A2989 RMK A01 T02780201  RH  063%=      5-min Rain = 0
KCO2 260017Z 15013KT 28/20 A2989 RMK A01 T02770200  RH  063%=      5-min Rain = 0
KCO2 260018Z 15011G16KT 28/20 A2989 RMK A01 T02770203  RH  064%=      5-min Rain = 0
KCO2 260019Z 15015KT 28/20 A2988 RMK A01 T02770202  RH  064%=      5-min Rain = 0
KCO2 260020Z 14015KT 28/20 A2988 RMK A01 T02770200  RH  063%=      5-min Rain = 0
KCO2 260021Z 15012G17KT 28/20 A2988 RMK A01 T02770201  RH  063%=      5-min Rain = 0
KCO2 260022Z 16015KT 28/20 A2988 RMK A01 T02770201  RH  063%=      5-min Rain = 0
KCO2 260023Z 15013G19KT 28/20 A2989 RMK A01 T02770201  RH  063%=      5-min Rain = 0
KCO2 260024Z 15014KT 28/20 A2989 RMK A01 T02770201  RH  063%=      5-min Rain = 0
KCO2 260025Z 15014KT 28/20 A2988 RMK A01 T02770200  RH  063%=      5-min Rain = 0
KCO2 260026Z 14012KT 28/20 A2988 RMK A01 T02770201  RH  063%=      5-min Rain = 0
KCO2 260027Z 15013KT 28/20 A2988 RMK A01 T02780202  RH  063%=      5-min Rain = 0
KCO2 260028Z 15019KT 28/20 A2988 RMK A01 T02770201  RH  063%=      5-min Rain = 0
KCO2 260029Z 15019G24KT 28/20 A2988 RMK A01 T02770200  RH  063%=      5-min Rain = 0
KCO2 260030Z 15018KT 28/20 A2988 RMK A01 T02760199  RH  063%=      5-min Rain = 0
KCO2 260031Z 15013KT 27/20 A2988 RMK A01 T02740201  RH  064%=      5-min Rain = 0
KCO2 260032Z 16016G21KT 27/20 A2988 RMK A01 T02740201  RH  064%=      5-min Rain = 0
KCO2 260033Z 15016G21KT 27/20 A2988 RMK A01 T02730199  RH  064%=      5-min Rain = 0
KCO2 260034Z 15014G21KT 27/20 A2988 RMK A01 T02720200  RH  065%=      5-min Rain = 0
KCO2 260035Z 15018KT 27/20 A2988 RMK A01 T02720200  RH  065%=      5-min Rain = 0
KCO2 260036Z 16014KT 27/20 A2988 RMK A01 T02710199  RH  065%=      5-min Rain = 0
KCO2 260037Z 16015KT 27/20 A2988 RMK A01 T02710200  RH  065%=      5-min Rain = 0
KCO2 260038Z 16014KT 27/20 A2988 RMK A01 T02710200  RH  065%=      5-min Rain = 0
KCO2 260039Z 15014KT 27/20 A2988 RMK A01 T02700200  RH  065%=      5-min Rain = 0
KCO2 260040Z 15019KT 27/20 A2988 RMK A01 T02710199  RH  065%=      5-min Rain = 0
KCO2 260041Z 15015KT 27/20 A2988 RMK A01 T02710198  RH  065%=      5-min Rain = 0
KCO2 260042Z 16017G22KT 27/20 A2989 RMK A01 T02710199  RH  065%=      5-min Rain = 0
KCO2 260043Z 16016KT 27/20 A2989 RMK A01 T02710199  RH  065%=      5-min Rain = 0
KCO2 260044Z 16016G21KT 27/20 A2989 RMK A01 T02710199  RH  065%=      5-min Rain = 0
KCO2 260045Z 16017KT 27/20 A2989 RMK A01 T02710199  RH  065%=      5-min Rain = 0
KCO2 260046Z 16017KT 27/20 A2989 RMK A01 T02710199  RH  065%=      5-min Rain = 0
KCO2 260047Z 16016G21KT 27/20 A2989 RMK A01 T02710199  RH  065%=      5-min Rain = 0
KCO2 260048Z 16016G21KT 27/20 A2989 RMK A01 T02700200  RH  065%=      5-min Rain = 0
KCO2 260049Z 16017KT 27/20 A2989 RMK A01 T02700200  RH  065%=      5-min Rain = 0
KCO2 260050Z 17018KT 27/20 A299 RMK A01 T02700199  RH  065%=      5-min Rain = 0
KCO2 260051Z 16017KT 27/20 A299 RMK A01 T02700199  RH  065%=      5-min Rain = 0
KCO2 260052Z 17015KT 27/20 A299 RMK A01 T02700201  RH  066%=      5-min Rain = 0
KCO2 260053Z 16015G21KT 27/20 A299 RMK A01 T02690200  RH  066%=      5-min Rain = 0
KCO2 260054Z 16016KT 27/20 A299 RMK A01 T02690200  RH  066%=      5-min Rain = 0
KCO2 260055Z 17014KT 27/20 A299 RMK A01 T02690199  RH  066%=      5-min Rain = 0
KCO2 260056Z 17013G18KT 27/20 A299 RMK A01 T02690200  RH  066%=      5-min Rain = 0
KCO2 260057Z 16011KT 27/20 A299 RMK A01 T02680200  RH  066%=      5-min Rain = 0
KCO2 260058Z 17013KT 27/20 A299 RMK A01 T02680200  RH  066%=      5-min Rain = 0
KCO2 260059Z 16014KT 27/20 A2989 RMK A01 T02680200  RH  066%=      5-min Rain = 0
KCO2 260100Z 16017KT 27/20 A2989 RMK A01 T02680200  RH  066%=      5-min Rain = 0
KCO2 260101Z 16017G22KT 27/20 A2989 RMK A01 T02670198  RH  066%=      5-min Rain = 0
KCO2 260102Z 16017G22KT 27/20 A2989 RMK A01 T02670198  RH  066%=      5-min Rain = 0
KCO2 260103Z 16017KT 27/20 A2989 RMK A01 T02680198  RH  065%=      5-min Rain = 0
KCO2 260104Z 16016KT 27/20 A2989 RMK A01 T02680198  RH  065%=      5-min Rain = 0
KCO2 260105Z 16012G18KT 27/20 A2989 RMK A01 T02680199  RH  066%=      5-min Rain = 0
KCO2 260106Z 16014G20KT 27/20 A2989 RMK A01 T02670199  RH  066%=      5-min Rain = 0
KCO2 260107Z 16015KT 27/20 A2989 RMK A01 T02670198  RH  066%=      5-min Rain = 0
KCO2 260108Z 15012KT 27/20 A2989 RMK A01 T02670199  RH  066%=      5-min Rain = 0
KCO2 260109Z 15014KT 27/20 A2989 RMK A01 T02660199  RH  067%=      5-min Rain = 0
KCO2 260110Z 16014KT 27/20 A2989 RMK A01 T02660199  RH  067%=      5-min Rain = 0
KCO2 260111Z 16015KT 27/20 A2989 RMK A01 T02660199  RH  067%=      5-min Rain = 0
KCO2 260112Z 15013KT 27/20 A2989 RMK A01 T02650198  RH  066%=      5-min Rain = 0
KCO2 260113Z 15014KT 27/20 A2989 RMK A01 T02650198  RH  067%=      5-min Rain = 0
KCO2 260114Z 15014KT 27/20 A2989 RMK A01 T02660199  RH  067%=      5-min Rain = 0
KCO2 260115Z 15015G20KT 27/20 A2989 RMK A01 T02650198  RH  067%=      5-min Rain = 0
KCO2 260116Z 15015G20KT 27/20 A2989 RMK A01 T02650198  RH  067%=      5-min Rain = 0
KCO2 260117Z 15014KT 27/20 A2989 RMK A01 T02650198  RH  066%=      5-min Rain = 0
KCO2 260118Z 15015KT 27/20 A2989 RMK A01 T02650198  RH  067%=      5-min Rain = 0
KCO2 260119Z 16013KT 27/20 A2989 RMK A01 T02650198  RH  067%=      5-min Rain = 0
KCO2 260120Z 16016G21KT 27/20 A299 RMK A01 T02650198  RH  067%=      5-min Rain = 0
KCO2 260121Z 17012KT 27/20 A299 RMK A01 T02650198  RH  067%=      5-min Rain = 0
KCO2 260122Z 17017KT 27/20 A2991 RMK A01 T02650198  RH  067%=      5-min Rain = 0
KCO2 260123Z 17014KT 26/20 A2991 RMK A01 T02640198  RH  067%=      5-min Rain = 0
KCO2 260124Z 17016KT 27/20 A2991 RMK A01 T02650198  RH  067%=      5-min Rain = 0
KCO2 260125Z 17014KT 27/20 A2991 RMK A01 T02650197  RH  066%=      5-min Rain = 0
KCO2 260126Z 16012KT 26/20 A2991 RMK A01 T02640198  RH  067%=      5-min Rain = 0
KCO2 260127Z 16012KT 26/20 A299 RMK A01 T02640198  RH  067%=      5-min Rain = 0
KCO2 260128Z 16012KT 26/20 A299 RMK A01 T02630197  RH  067%=      5-min Rain = 0
KCO2 260129Z 16012KT 26/20 A2991 RMK A01 T02630197  RH  067%=      5-min Rain = 0
KCO2 260130Z 16014G21KT 26/20 A2991 RMK A01 T02630197  RH  067%=      5-min Rain = 0
KCO2 260131Z 17017KT 26/20 A2991 RMK A01 T02630196  RH  066%=      5-min Rain = 0
KCO2 260132Z 17015KT 26/20 A2991 RMK A01 T02640195  RH  066%=      5-min Rain = 0
KCO2 260133Z 17012G17KT 27/20 A2991 RMK A01 T02650196  RH  066%=      5-min Rain = 0
KCO2 260134Z 17015KT 27/20 A2991 RMK A01 T02650196  RH  066%=      5-min Rain = 0
KCO2 260135Z 17016KT 27/20 A2992 RMK A01 T02650195  RH  065%=      5-min Rain = 0
KCO2 260136Z 17018KT 27/20 A2992 RMK A01 T02650195  RH  065%=      5-min Rain = 0
KCO2 260137Z 16013KT 27/20 A2991 RMK A01 T02660195  RH  065%=      5-min Rain = 0
KCO2 260138Z 16014G19KT 27/20 A2992 RMK A01 T02650196  RH  066%=      5-min Rain = 0
KCO2 260139Z 17015KT 27/20 A2992 RMK A01 T02650196  RH  066%=      5-min Rain = 0
KCO2 260140Z 17014KT 27/20 A2992 RMK A01 T02650196  RH  066%=      5-min Rain = 0
KCO2 260141Z 17011KT 26/20 A2992 RMK A01 T02640196  RH  066%=      5-min Rain = 0
KCO2 260142Z 17013KT 26/20 A2992 RMK A01 T02630196  RH  066%=      5-min Rain = 0
KCO2 260143Z 17012KT 26/20 A2992 RMK A01 T02630196  RH  066%=      5-min Rain = 0
KCO2 260144Z 17013KT 26/20 A2992 RMK A01 T02630196  RH  066%=      5-min Rain = 0
KCO2 260145Z 17016KT 26/20 A2992 RMK A01 T02630196  RH  066%=      5-min Rain = 0
KCO2 260146Z 17016KT 26/19 A2992 RMK A01 T02630194  RH  066%=      5-min Rain = 0
KCO2 260147Z 17016KT 26/19 A2992 RMK A01 T02640194  RH  065%=      5-min Rain = 0
KCO2 260148Z 17019G25KT 27/19 A2992 RMK A01 T02650194  RH  065%=      5-min Rain = 0
KCO2 260149Z 17019KT 27/19 A2992 RMK A01 T02660193  RH  065%=      5-min Rain = 0
KCO2 260150Z 17015KT 27/19 A2992 RMK A01 T02660194  RH  064%=      5-min Rain = 0
KCO2 260151Z 18021G26KT 27/19 A2992 RMK A01 T02660194  RH  065%=      5-min Rain = 0
KCO2 260152Z 18018G25KT 27/19 A2992 RMK A01 T02660194  RH  065%=      5-min Rain = 0
KCO2 260153Z 17014KT 27/19 A2992 RMK A01 T02650194  RH  065%=      5-min Rain = 0
KCO2 260154Z 17016KT 26/19 A2992 RMK A01 T02640194  RH  065%=      5-min Rain = 0
KCO2 260155Z 17018KT 26/19 A2992 RMK A01 T02640194  RH  065%=      5-min Rain = 0
KCO2 260156Z 17019KT 26/19 A2992 RMK A01 T02640193  RH  065%=      5-min Rain = 0
KCO2 260157Z 17019KT 26/19 A2991 RMK A01 T02640192  RH  065%=      5-min Rain = 0
KCO2 260158Z 18018G25KT 27/19 A2991 RMK A01 T02650192  RH  064%=      5-min Rain = 0
KCO2 260159Z 16015G20KT 27/19 A2991 RMK A01 T02650193  RH  064%=      5-min Rain = 0
KCO2 260200Z 17017G22KT 27/19 A2991 RMK A01 T02650193  RH  064%=      5-min Rain = 0
KCO2 260201Z 16019G26KT 27/19 A2991 RMK A01 T02650192  RH  064%=      5-min Rain = 0
KCO2 260202Z 16019KT 27/19 A2991 RMK A01 T02650191  RH  064%=      5-min Rain = 0
KCO2 260203Z 16015G21KT 27/19 A2991 RMK A01 T02660192  RH  064%=      5-min Rain = 0
KCO2 260204Z 16015KT 27/19 A2991 RMK A01 T02650192  RH  064%=      5-min Rain = 0
KCO2 260205Z 17016G21KT 27/19 A2991 RMK A01 T02650192  RH  064%=      5-min Rain = 0
KCO2 260206Z 16017KT 26/19 A299 RMK A01 T02640192  RH  064%=      5-min Rain = 0
KCO2 260207Z 16015KT 26/19 A299 RMK A01 T02640192  RH  064%=      5-min Rain = 0
KCO2 260208Z 16017KT 26/19 A299 RMK A01 T02640192  RH  064%=      5-min Rain = 0
KCO2 260209Z 17018KT 26/19 A299 RMK A01 T02640191  RH  064%=      5-min Rain = 0
KCO2 260210Z 17016G22KT 26/19 A299 RMK A01 T02640190  RH  064%=      5-min Rain = 0
KCO2 260211Z 16017G22KT 26/19 A299 RMK A01 T02640190  RH  064%=      5-min Rain = 0
KCO2 260212Z 17023G32KT 26/19 A299 RMK A01 T02640190  RH  064%=      5-min Rain = 0
KCO2 260213Z 17024G31KT 27/19 A299 RMK A01 T02660189  RH  063%=      5-min Rain = 0
KCO2 260214Z 17021KT 27/19 A299 RMK A01 T02670188  RH  062%=      5-min Rain = 0
KCO2 260215Z 17018G24KT 27/19 A299 RMK A01 T02680189  RH  062%=      5-min Rain = 0
KCO2 260216Z 17025G31KT 27/19 A299 RMK A01 T02680188  RH  062%=      5-min Rain = 0
KCO2 260217Z 17021G26KT 27/19 A299 RMK A01 T02680188  RH  061%=      5-min Rain = 0
KCO2 260218Z 17019G24KT 27/19 A299 RMK A01 T02680188  RH  062%=      5-min Rain = 0
KCO2 260219Z 17021KT 27/19 A299 RMK A01 T02670188  RH  062%=      5-min Rain = 0
KCO2 260220Z 17020KT 27/19 A299 RMK A01 T02670188  RH  062%=      5-min Rain = 0
KCO2 260221Z 17021G26KT 27/19 A299 RMK A01 T02660188  RH  062%=      5-min Rain = 0
KCO2 260222Z 17023G30KT 27/19 A299 RMK A01 T02660187  RH  062%=      5-min Rain = 0
KCO2 260223Z 17025KT 27/19 A299 RMK A01 T02660187  RH  062%=      5-min Rain = 0
KCO2 260224Z 17017G22KT 27/19 A299 RMK A01 T02670187  RH  062%=      5-min Rain = 0
KCO2 260225Z 16013KT 27/19 A299 RMK A01 T02660188  RH  062%=      5-min Rain = 0
KCO2 260226Z 17016KT 27/19 A299 RMK A01 T02650188  RH  062%=      5-min Rain = 0
KCO2 260227Z 17014KT 26/19 A299 RMK A01 T02640188  RH  063%=      5-min Rain = 0
KCO2 260228Z 16013KT 26/19 A2989 RMK A01 T02630188  RH  063%=      5-min Rain = 0
KCO2 260229Z 17011KT 26/19 A2989 RMK A01 T02620187  RH  063%=      5-min Rain = 0
KCO2 260230Z 16011KT 26/19 A2989 RMK A01 T02610188  RH  064%=      5-min Rain = 0
KCO2 260231Z 18011KT 26/19 A2989 RMK A01 T02610188  RH  064%=      5-min Rain = 0
KCO2 260232Z 18008KT 26/19 A2989 RMK A01 T02600188  RH  064%=      5-min Rain = 0
KCO2 260233Z 19008KT 26/19 A2988 RMK A01 T02590188  RH  065%=      5-min Rain = 0
KCO2 260234Z 18008KT 26/19 A2988 RMK A01 T02570187  RH  065%=      5-min Rain = 0
KCO2 260235Z 17009KT 26/19 A2988 RMK A01 T02560186  RH  065%=      5-min Rain = 0
KCO2 260236Z 16011KT 26/18 A2988 RMK A01 T02560184  RH  064%=      5-min Rain = 0
KCO2 260237Z 16008KT 26/18 A2988 RMK A01 T02570183  RH  063%=      5-min Rain = 0
KCO2 260238Z 16009KT 26/18 A2988 RMK A01 T02570184  RH  064%=      5-min Rain = 0
KCO2 260239Z 17008KT 26/18 A2988 RMK A01 T02560182  RH  064%=      5-min Rain = 0
KCO2 260240Z 16007KT 26/18 A2987 RMK A01 T02550182  RH  064%=      5-min Rain = 0
KCO2 260241Z 15012G18KT 25/18 A2987 RMK A01 T02540180  RH  063%=      5-min Rain = 0
KCO2 260242Z 17010KT 25/17 A2987 RMK A01 T02540171  RH  060%=      5-min Rain = 0
KCO2 260243Z 16013KT 26/17 A2987 RMK A01 T02550168  RH  058%=      5-min Rain = 0
KCO2 260244Z 16013KT 26/17 A2987 RMK A01 T02570165  RH  057%=      5-min Rain = 0
KCO2 260245Z 16013KT 26/16 A2988 RMK A01 T02580164  RH  056%=      5-min Rain = 0
KCO2 260246Z 17014KT 26/16 A2989 RMK A01 T02580163  RH  056%=      5-min Rain = 0
KCO2 260247Z 17018KT 26/17 A299 RMK A01 T02580166  RH  057%=      5-min Rain = 0
KCO2 260248Z 18020G25KT 26/17 A2989 RMK A01 T02590171  RH  059%=      5-min Rain = 0
KCO2 260249Z 17017G26KT 26/18 A2989 RMK A01 T02580176  RH  060%=      5-min Rain = 0
KCO2 260250Z 18017G23KT 26/18 A2989 RMK A01 T02570179  RH  062%=      5-min Rain = 0
KCO2 260251Z 18020KT 26/18 A2989 RMK A01 T02560181  RH  063%=      5-min Rain = 0
KCO2 260252Z 18023G28KT 26/18 A2989 RMK A01 T02550182  RH  064%=      5-min Rain = 0
KCO2 260253Z 18019G24KT 26/18 A2989 RMK A01 T02550183  RH  065%=      5-min Rain = 0
KCO2 260254Z 18022G27KT 26/19 A2989 RMK A01 T02550185  RH  065%=      5-min Rain = 0
KCO2 260255Z 18023KT 25/19 A2989 RMK A01 T02540186  RH  066%=      5-min Rain = 0
KCO2 260256Z 18018KT 25/19 A2989 RMK A01 T02540185  RH  066%=      5-min Rain = 0
KCO2 260257Z 18016KT 25/19 A2988 RMK A01 T02540187  RH  066%=      5-min Rain = 0
KCO2 260258Z 17019G24KT 25/19 A2988 RMK A01 T02530186  RH  067%=      5-min Rain = 0
KCO2 260259Z 17016G22KT 25/19 A2988 RMK A01 T02530186  RH  067%=      5-min Rain = 0
KCO2 260300Z 17015G23KT 25/19 A2988 RMK A01 T02530186  RH  067%=      5-min Rain = 0
KCO2 260301Z 17019KT 25/19 A2988 RMK A01 T02520186  RH  067%=      5-min Rain = 0
KCO2 260302Z 17014G19KT 25/19 A2988 RMK A01 T02530185  RH  066%=      5-min Rain = 0
KCO2 260303Z 17017G25KT 25/19 A2988 RMK A01 T02530186  RH  066%=      5-min Rain = 0
KCO2 260304Z 17019KT 25/19 A2988 RMK A01 T02530186  RH  066%=      5-min Rain = 0
KCO2 260305Z 17020G25KT 25/19 A2988 RMK A01 T02540185  RH  066%=      5-min Rain = 0
KCO2 260306Z 17020KT 26/19 A2988 RMK A01 T02550185  RH  065%=      5-min Rain = 0
KCO2 260307Z 17017G25KT 26/19 A2988 RMK A01 T02560185  RH  065%=      5-min Rain = 0
KCO2 260308Z 16016KT 26/19 A2988 RMK A01 T02560185  RH  065%=      5-min Rain = 0
KCO2 260309Z 17016KT 26/19 A2988 RMK A01 T02560185  RH  065%=      5-min Rain = 0
KCO2 260310Z 17017G22KT 26/19 A2988 RMK A01 T02560186  RH  065%=      5-min Rain = 0
KCO2 260311Z 17019G24KT 26/19 A2988 RMK A01 T02560185  RH  065%=      5-min Rain = 0
KCO2 260312Z 17018G24KT 26/19 A2988 RMK A01 T02560185  RH  065%=      5-min Rain = 0
KCO2 260313Z 17017G22KT 26/19 A2988 RMK A01 T02570186  RH  065%=      5-min Rain = 0
KCO2 260314Z 17018G24KT 26/19 A2988 RMK A01 T02570186  RH  065%=      5-min Rain = 0
KCO2 260315Z 17019G25KT 26/19 A2988 RMK A01 T02570186  RH  065%=      5-min Rain = 0
KCO2 260316Z 16019G24KT 26/19 A2988 RMK A01 T02570186  RH  065%=      5-min Rain = 0
KCO2 260317Z 17018KT 26/19 A2989 RMK A01 T02570185  RH  065%=      5-min Rain = 0
KCO2 260318Z 17014KT 26/19 A2989 RMK A01 T02570186  RH  065%=      5-min Rain = 0
KCO2 260319Z 17020G25KT 26/19 A2989 RMK A01 T02570187  RH  065%=      5-min Rain = 0
KCO2 260320Z 17018KT 26/19 A299 RMK A01 T02560186  RH  065%=      5-min Rain = 0
KCO2 260321Z 17019KT 26/19 A299 RMK A01 T02560187  RH  065%=      5-min Rain = 0
KCO2 260322Z 18016KT 26/19 A299 RMK A01 T02560187  RH  066%=      5-min Rain = 0
KCO2 260323Z 17017G22KT 26/19 A299 RMK A01 T02560187  RH  066%=      5-min Rain = 0
KCO2 260324Z 17016G21KT 26/19 A299 RMK A01 T02550187  RH  066%=      5-min Rain = 0
KCO2 260325Z 18021KT 26/19 A299 RMK A01 T02550187  RH  066%=      5-min Rain = 0
KCO2 260326Z 18018KT 26/19 A299 RMK A01 T02550187  RH  066%=      5-min Rain = 0
KCO2 260327Z 18019G25KT 26/19 A2991 RMK A01 T02550186  RH  066%=      5-min Rain = 0
KCO2 260328Z 18016KT 26/19 A2991 RMK A01 T02550187  RH  066%=      5-min Rain = 0
KCO2 260329Z 18015KT 25/19 A2991 RMK A01 T02540187  RH  066%=      5-min Rain = 0
KCO2 260330Z 18015KT 25/19 A2991 RMK A01 T02540188  RH  067%=      5-min Rain = 0
KCO2 260331Z 17015G22KT 25/19 A2991 RMK A01 T02530188  RH  067%=      5-min Rain = 0
KCO2 260332Z 18016KT 25/19 A2991 RMK A01 T02520188  RH  067%=      5-min Rain = 0
KCO2 260333Z 17019G24KT 25/19 A2991 RMK A01 T02520188  RH  067%=      5-min Rain = 0
KCO2 260334Z 17017G22KT 25/19 A2991 RMK A01 T02530188  RH  067%=      5-min Rain = 0
KCO2 260335Z 17016KT 25/19 A299 RMK A01 T02520187  RH  067%=      5-min Rain = 0
KCO2 260336Z 17017KT 25/19 A299 RMK A01 T02520187  RH  067%=      5-min Rain = 0
KCO2 260337Z 17017KT 25/19 A299 RMK A01 T02520187  RH  067%=      5-min Rain = 0
KCO2 260338Z 17015G21KT 25/19 A299 RMK A01 T02530187  RH  067%=      5-min Rain = 0
KCO2 260339Z 17017KT 25/19 A299 RMK A01 T02520187  RH  067%=      5-min Rain = 0
KCO2 260340Z 17022KT 25/19 A299 RMK A01 T02520186  RH  067%=      5-min Rain = 0
KCO2 260341Z 17021G27KT 25/19 A299 RMK A01 T02540186  RH  066%=      5-min Rain = 0
KCO2 260342Z 17018G23KT 25/19 A299 RMK A01 T02540186  RH  066%=      5-min Rain = 0
KCO2 260343Z 17018G23KT 26/19 A299 RMK A01 T02550186  RH  066%=      5-min Rain = 0
KCO2 260344Z 17017G22KT 26/19 A299 RMK A01 T02550186  RH  066%=      5-min Rain = 0
KCO2 260345Z 17017G23KT 26/19 A299 RMK A01 T02550186  RH  066%=      5-min Rain = 0
KCO2 260346Z 17017KT 26/19 A299 RMK A01 T02550186  RH  066%=      5-min Rain = 0
KCO2 260347Z 17017KT 25/19 A299 RMK A01 T02540185  RH  066%=      5-min Rain = 0
KCO2 260348Z 17015G20KT 26/19 A299 RMK A01 T02550185  RH  065%=      5-min Rain = 0
KCO2 260349Z 17016KT 26/19 A299 RMK A01 T02550186  RH  066%=      5-min Rain = 0
KCO2 260350Z 17015KT 26/19 A299 RMK A01 T02550186  RH  066%=      5-min Rain = 0
KCO2 260351Z 17018G23KT 25/19 A299 RMK A01 T02540186  RH  066%=      5-min Rain = 0
KCO2 260352Z 16016KT 25/19 A299 RMK A01 T02540186  RH  066%=      5-min Rain = 0
KCO2 260353Z 17015G21KT 25/19 A299 RMK A01 T02530186  RH  066%=      5-min Rain = 0
KCO2 260354Z 17013KT 25/19 A299 RMK A01 T02520186  RH  067%=      5-min Rain = 0
KCO2 260355Z 16016G21KT 25/19 A299 RMK A01 T02520187  RH  067%=      5-min Rain = 0
KCO2 260356Z 17015KT 25/19 A299 RMK A01 T02510186  RH  067%=      5-min Rain = 0
KCO2 260357Z 16016G21KT 25/19 A299 RMK A01 T02510186  RH  067%=      5-min Rain = 0
KCO2 260358Z 16015KT 25/19 A299 RMK A01 T02510186  RH  067%=      5-min Rain = 0
KCO2 260359Z 16013KT 25/19 A299 RMK A01 T02510186  RH  067%=      5-min Rain = 0
KCO2 260400Z 17015KT 25/19 A299 RMK A01 T02520186  RH  067%=      5-min Rain = 0
KCO2 260401Z 17013KT 25/19 A299 RMK A01 T02510186  RH  067%=      5-min Rain = 0
KCO2 260402Z 16014KT 25/19 A299 RMK A01 T02510187  RH  067%=      5-min Rain = 0
KCO2 260403Z 16013G18KT 25/19 A299 RMK A01 T02510186  RH  067%=      5-min Rain = 0
KCO2 260404Z 17014KT 25/19 A299 RMK A01 T02510186  RH  067%=      5-min Rain = 0
KCO2 260405Z 16013G18KT 25/19 A299 RMK A01 T02510186  RH  067%=      5-min Rain = 0
KCO2 260406Z 16018KT 25/19 A299 RMK A01 T02500186  RH  068%=      5-min Rain = 0
KCO2 260407Z 17016G21KT 25/19 A299 RMK A01 T02500186  RH  067%=      5-min Rain = 0
KCO2 260408Z 16017KT 25/19 A299 RMK A01 T02510186  RH  067%=      5-min Rain = 0
KCO2 260409Z 17014KT 25/19 A299 RMK A01 T02510186  RH  067%=      5-min Rain = 0
KCO2 260410Z 17014G19KT 25/19 A299 RMK A01 T02510187  RH  067%=      5-min Rain = 0
KCO2 260411Z 17018KT 25/19 A299 RMK A01 T02500186  RH  068%=      5-min Rain = 0
KCO2 260412Z 17016G22KT 25/19 A299 RMK A01 T02500186  RH  067%=      5-min Rain = 0
KCO2 260413Z 17015KT 25/19 A2991 RMK A01 T02500186  RH  067%=      5-min Rain = 0
KCO2 260414Z 17019KT 25/19 A299 RMK A01 T02500186  RH  067%=      5-min Rain = 0
KCO2 260415Z 17019KT 25/19 A2991 RMK A01 T02510186  RH  067%=      5-min Rain = 0
KCO2 260416Z 17017G23KT 25/19 A2991 RMK A01 T02510186  RH  067%=      5-min Rain = 0
KCO2 260417Z 17017G22KT 25/19 A299 RMK A01 T02510186  RH  067%=      5-min Rain = 0
KCO2 260418Z 17016G21KT 25/19 A299 RMK A01 T02510186  RH  067%=      5-min Rain = 0
KCO2 260419Z 17018G24KT 25/19 A299 RMK A01 T02500186  RH  068%=      5-min Rain = 0
KCO2 260420Z 17014G19KT 25/19 A299 RMK A01 T02500186  RH  068%=      5-min Rain = 0
KCO2 260421Z 16017G23KT 25/19 A299 RMK A01 T02500186  RH  068%=      5-min Rain = 0
KCO2 260422Z 17017G22KT 25/19 A299 RMK A01 T02500186  RH  068%=      5-min Rain = 0
KCO2 260423Z 17018G25KT 25/19 A299 RMK A01 T02500186  RH  068%=      5-min Rain = 0
KCO2 260424Z 17019KT 25/19 A299 RMK A01 T02490186  RH  068%=      5-min Rain = 0
KCO2 260425Z 16021G26KT 25/19 A299 RMK A01 T02490185  RH  068%=      5-min Rain = 0
KCO2 260426Z 17020KT 25/19 A299 RMK A01 T02500186  RH  067%=      5-min Rain = 0
KCO2 260427Z 17020KT 25/19 A299 RMK A01 T02500186  RH  067%=      5-min Rain = 0
KCO2 260428Z 17017KT 25/19 A299 RMK A01 T02500186  RH  067%=      5-min Rain = 0
KCO2 260429Z 17017G22KT 25/19 A299 RMK A01 T02500186  RH  068%=      5-min Rain = 0
KCO2 260430Z 17015G20KT 25/19 A299 RMK A01 T02490186  RH  068%=      5-min Rain = 0
KCO2 260431Z 16014KT 25/19 A299 RMK A01 T02490186  RH  068%=      5-min Rain = 0
KCO2 260432Z 17017G22KT 25/19 A299 RMK A01 T02490186  RH  068%=      5-min Rain = 0
KCO2 260433Z 17016KT 25/19 A299 RMK A01 T02490186  RH  068%=      5-min Rain = 0
KCO2 260434Z 17018KT 25/19 A299 RMK A01 T02480185  RH  068%=      5-min Rain = 0
KCO2 260435Z 17019KT 25/19 A299 RMK A01 T02480185  RH  068%=      5-min Rain = 0
KCO2 260436Z 17022G27KT 25/19 A299 RMK A01 T02480185  RH  068%=      5-min Rain = 0
KCO2 260437Z 16015KT 25/19 A299 RMK A01 T02490185  RH  068%=      5-min Rain = 0
KCO2 260438Z 16014G19KT 25/19 A299 RMK A01 T02480185  RH  068%=      5-min Rain = 0
KCO2 260439Z 17017KT 25/19 A299 RMK A01 T02480185  RH  068%=      5-min Rain = 0
KCO2 260440Z 17016G21KT 25/19 A299 RMK A01 T02470185  RH  068%=      5-min Rain = 0
KCO2 260441Z 16015KT 25/19 A2991 RMK A01 T02470185  RH  068%=      5-min Rain = 0
KCO2 260442Z 16017KT 25/19 A2991 RMK A01 T02470185  RH  068%=      5-min Rain = 0
KCO2 260443Z 16015KT 25/19 A2991 RMK A01 T02470185  RH  068%=      5-min Rain = 0
KCO2 260444Z 17019KT 25/19 A2991 RMK A01 T02470185  RH  068%=      5-min Rain = 0
KCO2 260445Z 17019G24KT 25/19 A2991 RMK A01 T02470185  RH  068%=      5-min Rain = 0
KCO2 260446Z 16019KT 25/19 A2991 RMK A01 T02470185  RH  068%=      5-min Rain = 0
KCO2 260447Z 17015KT 25/19 A2991 RMK A01 T02480185  RH  068%=      5-min Rain = 0
KCO2 260448Z 17018G25KT 25/19 A2991 RMK A01 T02470185  RH  068%=      5-min Rain = 0
KCO2 260449Z 16021KT 25/19 A2991 RMK A01 T02470185  RH  068%=      5-min Rain = 0
KCO2 260450Z 16018G24KT 25/18 A2991 RMK A01 T02470184  RH  068%=      5-min Rain = 0
KCO2 260451Z 17015G20KT 25/19 A2991 RMK A01 T02470185  RH  068%=      5-min Rain = 0
KCO2 260452Z 16016KT 25/19 A2991 RMK A01 T02470185  RH  068%=      5-min Rain = 0
KCO2 260453Z 17017G22KT 25/19 A2991 RMK A01 T02470185  RH  068%=      5-min Rain = 0
KCO2 260454Z 16018KT 25/19 A2991 RMK A01 T02470185  RH  068%=      5-min Rain = 0
KCO2 260455Z 17017KT 25/19 A2991 RMK A01 T02470185  RH  068%=      5-min Rain = 0
KCO2 260456Z 16016KT 25/19 A2991 RMK A01 T02470185  RH  068%=      5-min Rain = 0
KCO2 260457Z 17016G23KT 25/18 A2991 RMK A01 T02460184  RH  068%=      5-min Rain = 0
KCO2 260458Z 17016KT 25/19 A2991 RMK A01 T02460185  RH  069%=      5-min Rain = 0
KCO2 260459Z 16017G22KT 25/19 A2991 RMK A01 T02460185  RH  069%=      5-min Rain = 0

Page generated in 0.0346 seconds.